Observation data for New Home on 09/11/2017      Previous  Date  Next       Current Mesonet Observations  Soil Data  Daily Summary Page  Observations in Plain Language
KNH1 110500Z 11005KT 17/10 A3025 RMK A01 T01670095  RH  062%=      5-min Rain = 0
KNH1 110501Z 11004KT 17/10 A3025 RMK A01 T01670095  RH  062%=      5-min Rain = 0
KNH1 110502Z 11005KT 17/10 A3025 RMK A01 T01670095  RH  062%=      5-min Rain = 0
KNH1 110503Z 12004KT 17/10 A3025 RMK A01 T01670095  RH  062%=      5-min Rain = 0
KNH1 110504Z 11005KT 17/10 A3025 RMK A01 T01670095  RH  062%=      5-min Rain = 0
KNH1 110505Z 11005KT 17/10 A3025 RMK A01 T01670095  RH  062%=      5-min Rain = 0
KNH1 110506Z 11005KT 17/10 A3025 RMK A01 T01670095  RH  062%=      5-min Rain = 0
KNH1 110507Z 11004KT 17/10 A3025 RMK A01 T01660095  RH  063%=      5-min Rain = 0
KNH1 110508Z 11005KT 17/10 A3025 RMK A01 T01650095  RH  063%=      5-min Rain = 0
KNH1 110509Z 11005KT 16/10 A3025 RMK A01 T01640095  RH  064%=      5-min Rain = 0
KNH1 110510Z 11004KT 16/10 A3025 RMK A01 T01640095  RH  064%=      5-min Rain = 0
KNH1 110511Z 11005KT 16/10 A3025 RMK A01 T01640095  RH  064%=      5-min Rain = 0
KNH1 110512Z 11005KT 16/10 A3025 RMK A01 T01640095  RH  064%=      5-min Rain = 0
KNH1 110513Z 11004KT 16/10 A3025 RMK A01 T01640095  RH  064%=      5-min Rain = 0
KNH1 110514Z 10005KT 16/10 A3025 RMK A01 T01630095  RH  064%=      5-min Rain = 0
KNH1 110515Z 11004KT 16/10 A3025 RMK A01 T01630095  RH  064%=      5-min Rain = 0
KNH1 110516Z 11004KT 16/10 A3025 RMK A01 T01620095  RH  065%=      5-min Rain = 0
KNH1 110517Z 11004KT 16/10 A3025 RMK A01 T01620096  RH  065%=      5-min Rain = 0
KNH1 110518Z 11004KT 16/10 A3025 RMK A01 T01610095  RH  065%=      5-min Rain = 0
KNH1 110519Z 11004KT 16/10 A3025 RMK A01 T01610096  RH  065%=      5-min Rain = 0
KNH1 110520Z 11004KT 16/10 A3025 RMK A01 T01600096  RH  065%=      5-min Rain = 0
KNH1 110521Z 11004KT 16/10 A3025 RMK A01 T01600096  RH  066%=      5-min Rain = 0
KNH1 110522Z 11004KT 16/10 A3025 RMK A01 T01600096  RH  066%=      5-min Rain = 0
KNH1 110523Z 11005KT 16/10 A3025 RMK A01 T01600097  RH  066%=      5-min Rain = 0
KNH1 110524Z 11004KT 16/10 A3025 RMK A01 T01600097  RH  066%=      5-min Rain = 0
KNH1 110525Z 10004KT 16/10 A3025 RMK A01 T01600098  RH  066%=      5-min Rain = 0
KNH1 110526Z 11004KT 16/10 A3025 RMK A01 T01600097  RH  066%=      5-min Rain = 0
KNH1 110527Z 11004KT 16/10 A3025 RMK A01 T01590097  RH  066%=      5-min Rain = 0
KNH1 110528Z 11005KT 16/10 A3025 RMK A01 T01600096  RH  066%=      5-min Rain = 0
KNH1 110529Z 11005KT 16/10 A3025 RMK A01 T01600096  RH  066%=      5-min Rain = 0
KNH1 110530Z 11005KT 16/10 A3025 RMK A01 T01600096  RH  065%=      5-min Rain = 0
KNH1 110531Z 11005KT 16/10 A3025 RMK A01 T01610095  RH  065%=      5-min Rain = 0
KNH1 110532Z 11004KT 16/10 A3025 RMK A01 T01610095  RH  065%=      5-min Rain = 0
KNH1 110533Z 11004KT 16/10 A3025 RMK A01 T01610095  RH  065%=      5-min Rain = 0
KNH1 110534Z 11004KT 16/10 A3025 RMK A01 T01610095  RH  065%=      5-min Rain = 0
KNH1 110535Z 11004KT 16/10 A3025 RMK A01 T01610095  RH  065%=      5-min Rain = 0
KNH1 110536Z 11004KT 16/10 A3025 RMK A01 T01610096  RH  065%=      5-min Rain = 0
KNH1 110537Z 11004KT 16/10 A3025 RMK A01 T01600096  RH  066%=      5-min Rain = 0
KNH1 110538Z 11004KT 16/10 A3025 RMK A01 T01590096  RH  066%=      5-min Rain = 0
KNH1 110539Z 11005KT 16/10 A3025 RMK A01 T01590096  RH  066%=      5-min Rain = 0
KNH1 110540Z 11004KT 16/10 A3025 RMK A01 T01590095  RH  066%=      5-min Rain = 0
KNH1 110541Z 11004KT 16/10 A3025 RMK A01 T01590095  RH  066%=      5-min Rain = 0
KNH1 110542Z 10005KT 16/10 A3025 RMK A01 T01590095  RH  066%=      5-min Rain = 0
KNH1 110543Z 11005KT 16/10 A3025 RMK A01 T01590095  RH  066%=      5-min Rain = 0
KNH1 110544Z 11004KT 16/10 A3025 RMK A01 T01590095  RH  066%=      5-min Rain = 0
KNH1 110545Z 10004KT 16/10 A3025 RMK A01 T01590095  RH  066%=      5-min Rain = 0
KNH1 110546Z 11005KT 16/10 A3025 RMK A01 T01590095  RH  066%=      5-min Rain = 0
KNH1 110547Z 11005KT 16/10 A3025 RMK A01 T01590095  RH  066%=      5-min Rain = 0
KNH1 110548Z 11005KT 16/10 A3025 RMK A01 T01590095  RH  066%=      5-min Rain = 0
KNH1 110549Z 11005KT 16/10 A3025 RMK A01 T01590095  RH  066%=      5-min Rain = 0
KNH1 110550Z 11005KT 16/10 A3025 RMK A01 T01590095  RH  066%=      5-min Rain = 0
KNH1 110551Z 11005KT 16/10 A3025 RMK A01 T01590095  RH  066%=      5-min Rain = 0
KNH1 110552Z 10005KT 16/09 A3025 RMK A01 T01590094  RH  065%=      5-min Rain = 0
KNH1 110553Z 11005KT 16/09 A3025 RMK A01 T01590094  RH  065%=      5-min Rain = 0
KNH1 110554Z 11005KT 16/09 A3025 RMK A01 T01590094  RH  065%=      5-min Rain = 0
KNH1 110555Z 11004KT 16/09 A3025 RMK A01 T01590094  RH  065%=      5-min Rain = 0
KNH1 110556Z 11006KT 16/09 A3025 RMK A01 T01590094  RH  065%=      5-min Rain = 0
KNH1 110557Z 11005KT 16/09 A3025 RMK A01 T01590093  RH  065%=      5-min Rain = 0
KNH1 110558Z 10004KT 16/09 A3025 RMK A01 T01590093  RH  065%=      5-min Rain = 0
KNH1 110559Z 11005KT 16/09 A3025 RMK A01 T01590093  RH  065%=      5-min Rain = 0
KNH1 110600Z 11005KT 16/09 A3025 RMK A01 T01590093  RH  065%=      5-min Rain = 0
KNH1 110601Z 11005KT 16/09 A3025 RMK A01 T01590093  RH  065%=      5-min Rain = 0
KNH1 110602Z 11005KT 16/09 A3025 RMK A01 T01590093  RH  065%=      5-min Rain = 0
KNH1 110603Z 11006KT 16/09 A3025 RMK A01 T01590093  RH  065%=      5-min Rain = 0
KNH1 110604Z 11005KT 16/09 A3025 RMK A01 T01600093  RH  065%=      5-min Rain = 0
KNH1 110605Z 11005KT 16/09 A3025 RMK A01 T01600093  RH  065%=      5-min Rain = 0
KNH1 110606Z 11006KT 16/09 A3025 RMK A01 T01600093  RH  065%=      5-min Rain = 0
KNH1 110607Z 11006KT 16/09 A3025 RMK A01 T01600093  RH  065%=      5-min Rain = 0
KNH1 110608Z 11006KT 16/09 A3025 RMK A01 T01600093  RH  065%=      5-min Rain = 0
KNH1 110609Z 11006KT 16/09 A3025 RMK A01 T01590093  RH  065%=      5-min Rain = 0
KNH1 110610Z 12006KT 16/09 A3025 RMK A01 T01590093  RH  065%=      5-min Rain = 0
KNH1 110611Z 11006KT 16/09 A3025 RMK A01 T01580093  RH  065%=      5-min Rain = 0
KNH1 110612Z 12006KT 16/09 A3025 RMK A01 T01580093  RH  065%=      5-min Rain = 0
KNH1 110613Z 11006KT 16/09 A3025 RMK A01 T01570093  RH  065%=      5-min Rain = 0
KNH1 110614Z 11006KT 16/09 A3025 RMK A01 T01570093  RH  066%=      5-min Rain = 0
KNH1 110615Z 12006KT 16/09 A3025 RMK A01 T01570093  RH  066%=      5-min Rain = 0
KNH1 110616Z 12006KT 16/09 A3025 RMK A01 T01570093  RH  066%=      5-min Rain = 0
KNH1 110617Z 12006KT 16/09 A3025 RMK A01 T01570093  RH  066%=      5-min Rain = 0
KNH1 110618Z 12006KT 16/09 A3025 RMK A01 T01570093  RH  066%=      5-min Rain = 0
KNH1 110619Z 12006KT 16/09 A3025 RMK A01 T01570093  RH  066%=      5-min Rain = 0
KNH1 110620Z 12006KT 16/09 A3024 RMK A01 T01570094  RH  066%=      5-min Rain = 0
KNH1 110621Z 12005KT 16/09 A3024 RMK A01 T01560093  RH  066%=      5-min Rain = 0
KNH1 110622Z 12005KT 16/09 A3024 RMK A01 T01550094  RH  067%=      5-min Rain = 0
KNH1 110623Z 12005KT 15/09 A3024 RMK A01 T01540093  RH  067%=      5-min Rain = 0
KNH1 110624Z 12005KT 15/09 A3024 RMK A01 T01540093  RH  067%=      5-min Rain = 0
KNH1 110625Z 12005KT 15/09 A3024 RMK A01 T01540093  RH  067%=      5-min Rain = 0
KNH1 110626Z 12005KT 15/09 A3024 RMK A01 T01530093  RH  067%=      5-min Rain = 0
KNH1 110627Z 12005KT 15/09 A3024 RMK A01 T01530093  RH  067%=      5-min Rain = 0
KNH1 110628Z 12005KT 15/09 A3024 RMK A01 T01520093  RH  068%=      5-min Rain = 0
KNH1 110629Z 12005KT 15/09 A3024 RMK A01 T01520093  RH  068%=      5-min Rain = 0
KNH1 110630Z 12006KT 15/09 A3024 RMK A01 T01520093  RH  068%=      5-min Rain = 0
KNH1 110631Z 12005KT 15/09 A3024 RMK A01 T01520093  RH  068%=      5-min Rain = 0
KNH1 110632Z 12005KT 15/09 A3024 RMK A01 T01520093  RH  068%=      5-min Rain = 0
KNH1 110633Z 12005KT 15/09 A3024 RMK A01 T01510093  RH  068%=      5-min Rain = 0
KNH1 110634Z 12005KT 15/09 A3024 RMK A01 T01510093  RH  068%=      5-min Rain = 0
KNH1 110635Z 13005KT 15/09 A3024 RMK A01 T01510092  RH  068%=      5-min Rain = 0
KNH1 110636Z 12005KT 15/09 A3024 RMK A01 T01510092  RH  068%=      5-min Rain = 0
KNH1 110637Z 12005KT 15/09 A3024 RMK A01 T01510092  RH  068%=      5-min Rain = 0
KNH1 110638Z 13005KT 15/09 A3024 RMK A01 T01510091  RH  067%=      5-min Rain = 0
KNH1 110639Z 13005KT 15/09 A3024 RMK A01 T01510092  RH  067%=      5-min Rain = 0
KNH1 110640Z 12004KT 15/09 A3024 RMK A01 T01510092  RH  068%=      5-min Rain = 0
KNH1 110641Z 13005KT 15/09 A3024 RMK A01 T01510091  RH  068%=      5-min Rain = 0
KNH1 110642Z 13005KT 15/09 A3024 RMK A01 T01510092  RH  068%=      5-min Rain = 0
KNH1 110643Z 13005KT 15/09 A3024 RMK A01 T01500092  RH  068%=      5-min Rain = 0
KNH1 110644Z 13005KT 15/09 A3024 RMK A01 T01500091  RH  068%=      5-min Rain = 0
KNH1 110645Z 12005KT 15/09 A3024 RMK A01 T01500091  RH  068%=      5-min Rain = 0
KNH1 110646Z 12005KT 15/09 A3024 RMK A01 T01490092  RH  068%=      5-min Rain = 0
KNH1 110647Z 13005KT 15/09 A3024 RMK A01 T01490092  RH  069%=      5-min Rain = 0
KNH1 110648Z 12005KT 15/09 A3024 RMK A01 T01490092  RH  069%=      5-min Rain = 0
KNH1 110649Z 12005KT 15/09 A3024 RMK A01 T01490093  RH  069%=      5-min Rain = 0
KNH1 110650Z 12005KT 15/09 A3024 RMK A01 T01490092  RH  069%=      5-min Rain = 0
KNH1 110651Z 12006KT 15/09 A3024 RMK A01 T01490092  RH  069%=      5-min Rain = 0
KNH1 110652Z 11006KT 15/09 A3024 RMK A01 T01500092  RH  068%=      5-min Rain = 0
KNH1 110653Z 12006KT 15/09 A3024 RMK A01 T01500092  RH  068%=      5-min Rain = 0
KNH1 110654Z 12005KT 15/09 A3024 RMK A01 T01500092  RH  068%=      5-min Rain = 0
KNH1 110655Z 12005KT 15/09 A3024 RMK A01 T01500092  RH  068%=      5-min Rain = 0
KNH1 110656Z 12006KT 15/09 A3024 RMK A01 T01500092  RH  068%=      5-min Rain = 0
KNH1 110657Z 12006KT 15/09 A3024 RMK A01 T01500092  RH  068%=      5-min Rain = 0
KNH1 110658Z 12005KT 15/09 A3024 RMK A01 T01500092  RH  068%=      5-min Rain = 0
KNH1 110659Z 12005KT 15/09 A3024 RMK A01 T01500092  RH  068%=      5-min Rain = 0
KNH1 110700Z 12006KT 15/09 A3024 RMK A01 T01500092  RH  068%=      5-min Rain = 0
KNH1 110701Z 11006KT 15/09 A3024 RMK A01 T01500092  RH  068%=      5-min Rain = 0
KNH1 110702Z 11005KT 15/09 A3024 RMK A01 T01500092  RH  068%=      5-min Rain = 0
KNH1 110703Z 12006KT 15/09 A3024 RMK A01 T01500092  RH  068%=      5-min Rain = 0
KNH1 110704Z 12006KT 15/09 A3024 RMK A01 T01500092  RH  068%=      5-min Rain = 0
KNH1 110705Z 12005KT 15/09 A3024 RMK A01 T01500092  RH  068%=      5-min Rain = 0
KNH1 110706Z 11006KT 15/09 A3024 RMK A01 T01500092  RH  068%=      5-min Rain = 0
KNH1 110707Z 11005KT 15/09 A3024 RMK A01 T01500092  RH  068%=      5-min Rain = 0
KNH1 110708Z 11006KT 15/09 A3024 RMK A01 T01500092  RH  068%=      5-min Rain = 0
KNH1 110709Z 12006KT 15/09 A3024 RMK A01 T01500092  RH  068%=      5-min Rain = 0
KNH1 110710Z 12005KT 15/09 A3024 RMK A01 T01500092  RH  068%=      5-min Rain = 0
KNH1 110711Z 12006KT 15/09 A3024 RMK A01 T01500093  RH  068%=      5-min Rain = 0
KNH1 110712Z 12005KT 15/09 A3024 RMK A01 T01500093  RH  069%=      5-min Rain = 0
KNH1 110713Z 12005KT 15/09 A3024 RMK A01 T01500093  RH  069%=      5-min Rain = 0
KNH1 110714Z 11005KT 15/09 A3024 RMK A01 T01490093  RH  069%=      5-min Rain = 0
KNH1 110715Z 11005KT 15/09 A3024 RMK A01 T01490093  RH  069%=      5-min Rain = 0
KNH1 110716Z 12005KT 15/09 A3024 RMK A01 T01490093  RH  069%=      5-min Rain = 0
KNH1 110717Z 11005KT 15/09 A3024 RMK A01 T01480092  RH  069%=      5-min Rain = 0
KNH1 110718Z 11005KT 15/09 A3024 RMK A01 T01470092  RH  070%=      5-min Rain = 0
KNH1 110719Z 12005KT 15/09 A3024 RMK A01 T01470092  RH  070%=      5-min Rain = 0
KNH1 110720Z 11005KT 15/09 A3024 RMK A01 T01460092  RH  070%=      5-min Rain = 0
KNH1 110721Z 12004KT 15/09 A3024 RMK A01 T01460092  RH  070%=      5-min Rain = 0
KNH1 110722Z 11005KT 15/09 A3024 RMK A01 T01460092  RH  070%=      5-min Rain = 0
KNH1 110723Z 11004KT 15/09 A3024 RMK A01 T01450091  RH  070%=      5-min Rain = 0
KNH1 110724Z 11004KT 15/09 A3024 RMK A01 T01450091  RH  070%=      5-min Rain = 0
KNH1 110725Z 12004KT 15/09 A3024 RMK A01 T01450091  RH  070%=      5-min Rain = 0
KNH1 110726Z 12005KT 15/09 A3024 RMK A01 T01460091  RH  070%=      5-min Rain = 0
KNH1 110727Z 12005KT 15/09 A3024 RMK A01 T01460091  RH  069%=      5-min Rain = 0
KNH1 110728Z 11005KT 15/09 A3024 RMK A01 T01460091  RH  069%=      5-min Rain = 0
KNH1 110729Z 12005KT 15/09 A3024 RMK A01 T01460091  RH  069%=      5-min Rain = 0
KNH1 110730Z 12005KT 15/09 A3024 RMK A01 T01470091  RH  069%=      5-min Rain = 0
KNH1 110731Z 12005KT 15/09 A3024 RMK A01 T01480091  RH  069%=      5-min Rain = 0
KNH1 110732Z 12005KT 15/09 A3024 RMK A01 T01480091  RH  069%=      5-min Rain = 0
KNH1 110733Z 12005KT 15/09 A3024 RMK A01 T01480091  RH  069%=      5-min Rain = 0
KNH1 110734Z 11005KT 15/09 A3024 RMK A01 T01480091  RH  069%=      5-min Rain = 0
KNH1 110735Z 12005KT 15/09 A3024 RMK A01 T01480091  RH  069%=      5-min Rain = 0
KNH1 110736Z 12005KT 15/09 A3024 RMK A01 T01480091  RH  069%=      5-min Rain = 0
KNH1 110737Z 12005KT 15/09 A3024 RMK A01 T01480091  RH  069%=      5-min Rain = 0
KNH1 110738Z 11005KT 15/09 A3024 RMK A01 T01480091  RH  069%=      5-min Rain = 0
KNH1 110739Z 12005KT 15/09 A3024 RMK A01 T01480091  RH  069%=      5-min Rain = 0
KNH1 110740Z 12005KT 15/09 A3024 RMK A01 T01470091  RH  069%=      5-min Rain = 0
KNH1 110741Z 12004KT 15/09 A3024 RMK A01 T01470091  RH  069%=      5-min Rain = 0
KNH1 110742Z 12005KT 15/09 A3024 RMK A01 T01470091  RH  069%=      5-min Rain = 0
KNH1 110743Z 12005KT 15/09 A3024 RMK A01 T01470090  RH  069%=      5-min Rain = 0
KNH1 110744Z 12005KT 15/09 A3024 RMK A01 T01480091  RH  069%=      5-min Rain = 0
KNH1 110745Z 12005KT 15/09 A3024 RMK A01 T01480091  RH  069%=      5-min Rain = 0
KNH1 110746Z 12005KT 15/09 A3024 RMK A01 T01480091  RH  069%=      5-min Rain = 0
KNH1 110747Z 12005KT 15/09 A3024 RMK A01 T01480090  RH  068%=      5-min Rain = 0
KNH1 110748Z 12004KT 15/09 A3024 RMK A01 T01480091  RH  068%=      5-min Rain = 0
KNH1 110749Z 12004KT 15/09 A3024 RMK A01 T01480090  RH  068%=      5-min Rain = 0
KNH1 110750Z 12004KT 15/09 A3024 RMK A01 T01480091  RH  068%=      5-min Rain = 0
KNH1 110751Z 13005KT 15/09 A3024 RMK A01 T01480091  RH  068%=      5-min Rain = 0
KNH1 110752Z 13004KT 15/09 A3024 RMK A01 T01480091  RH  068%=      5-min Rain = 0
KNH1 110753Z 13004KT 15/09 A3024 RMK A01 T01480091  RH  069%=      5-min Rain = 0
KNH1 110754Z 13005KT 15/09 A3024 RMK A01 T01480091  RH  069%=      5-min Rain = 0
KNH1 110755Z 13005KT 15/09 A3024 RMK A01 T01470090  RH  069%=      5-min Rain = 0
KNH1 110756Z 13005KT 15/09 A3024 RMK A01 T01470091  RH  069%=      5-min Rain = 0
KNH1 110757Z 13005KT 15/09 A3024 RMK A01 T01470091  RH  069%=      5-min Rain = 0
KNH1 110758Z 13004KT 15/09 A3024 RMK A01 T01470091  RH  069%=      5-min Rain = 0
KNH1 110759Z 13005KT 15/09 A3024 RMK A01 T01470091  RH  069%=      5-min Rain = 0
KNH1 110800Z 13004KT 15/09 A3024 RMK A01 T01470091  RH  069%=      5-min Rain = 0
KNH1 110801Z 13004KT 15/09 A3024 RMK A01 T01460091  RH  069%=      5-min Rain = 0
KNH1 110802Z 13005KT 15/09 A3024 RMK A01 T01460091  RH  069%=      5-min Rain = 0
KNH1 110803Z 13005KT 15/09 A3024 RMK A01 T01450090  RH  070%=      5-min Rain = 0
KNH1 110804Z 12005KT 15/09 A3024 RMK A01 T01450090  RH  070%=      5-min Rain = 0
KNH1 110805Z 12005KT 15/09 A3024 RMK A01 T01450090  RH  070%=      5-min Rain = 0
KNH1 110806Z 12005KT 15/09 A3024 RMK A01 T01450090  RH  070%=      5-min Rain = 0
KNH1 110807Z 12005KT 14/09 A3024 RMK A01 T01440090  RH  070%=      5-min Rain = 0
KNH1 110808Z 12005KT 15/09 A3024 RMK A01 T01450090  RH  070%=      5-min Rain = 0
KNH1 110809Z 12005KT 15/09 A3024 RMK A01 T01450090  RH  069%=      5-min Rain = 0
KNH1 110810Z 12005KT 15/09 A3024 RMK A01 T01450090  RH  069%=      5-min Rain = 0
KNH1 110811Z 12005KT 15/09 A3024 RMK A01 T01450090  RH  069%=      5-min Rain = 0
KNH1 110812Z 12005KT 15/09 A3024 RMK A01 T01450090  RH  069%=      5-min Rain = 0
KNH1 110813Z 12005KT 15/09 A3024 RMK A01 T01450090  RH  069%=      5-min Rain = 0
KNH1 110814Z 12005KT 15/09 A3024 RMK A01 T01460090  RH  069%=      5-min Rain = 0
KNH1 110815Z 13004KT 15/09 A3024 RMK A01 T01460090  RH  069%=      5-min Rain = 0
KNH1 110816Z 12004KT 15/09 A3024 RMK A01 T01450090  RH  069%=      5-min Rain = 0
KNH1 110817Z 12005KT 15/09 A3024 RMK A01 T01460090  RH  069%=      5-min Rain = 0
KNH1 110818Z 13005KT 15/09 A3024 RMK A01 T01460090  RH  069%=      5-min Rain = 0
KNH1 110819Z 13004KT 15/09 A3024 RMK A01 T01450090  RH  069%=      5-min Rain = 0
KNH1 110820Z 12004KT 15/09 A3024 RMK A01 T01460090  RH  069%=      5-min Rain = 0
KNH1 110821Z 12005KT 15/09 A3024 RMK A01 T01460090  RH  069%=      5-min Rain = 0
KNH1 110822Z 12004KT 15/09 A3024 RMK A01 T01460090  RH  069%=      5-min Rain = 0
KNH1 110823Z 12005KT 15/09 A3024 RMK A01 T01450090  RH  069%=      5-min Rain = 0
KNH1 110824Z 12005KT 15/09 A3024 RMK A01 T01450090  RH  069%=      5-min Rain = 0
KNH1 110825Z 12005KT 15/09 A3024 RMK A01 T01450090  RH  070%=      5-min Rain = 0
KNH1 110826Z 12005KT 15/09 A3024 RMK A01 T01450090  RH  070%=      5-min Rain = 0
KNH1 110827Z 12005KT 15/09 A3024 RMK A01 T01450090  RH  070%=      5-min Rain = 0
KNH1 110828Z 12004KT 14/09 A3024 RMK A01 T01440090  RH  070%=      5-min Rain = 0
KNH1 110829Z 12004KT 14/09 A3024 RMK A01 T01440090  RH  070%=      5-min Rain = 0
KNH1 110830Z 12005KT 14/09 A3024 RMK A01 T01440090  RH  070%=      5-min Rain = 0
KNH1 110831Z 12004KT 14/09 A3024 RMK A01 T01440090  RH  070%=      5-min Rain = 0
KNH1 110832Z 12005KT 14/09 A3024 RMK A01 T01430090  RH  070%=      5-min Rain = 0
KNH1 110833Z 11004KT 14/09 A3024 RMK A01 T01430090  RH  070%=      5-min Rain = 0
KNH1 110834Z 12004KT 14/09 A3024 RMK A01 T01430090  RH  071%=      5-min Rain = 0
KNH1 110835Z 12004KT 14/09 A3024 RMK A01 T01420090  RH  071%=      5-min Rain = 0
KNH1 110836Z 12004KT 14/09 A3024 RMK A01 T01420090  RH  071%=      5-min Rain = 0
KNH1 110837Z 12004KT 14/09 A3024 RMK A01 T01420090  RH  071%=      5-min Rain = 0
KNH1 110838Z 12005KT 14/09 A3024 RMK A01 T01410090  RH  071%=      5-min Rain = 0
KNH1 110839Z 12005KT 14/09 A3024 RMK A01 T01410090  RH  071%=      5-min Rain = 0
KNH1 110840Z 12005KT 14/09 A3024 RMK A01 T01410089  RH  071%=      5-min Rain = 0
KNH1 110841Z 12005KT 14/09 A3024 RMK A01 T01410090  RH  071%=      5-min Rain = 0
KNH1 110842Z 12005KT 14/09 A3023 RMK A01 T01420090  RH  071%=      5-min Rain = 0
KNH1 110843Z 12005KT 14/09 A3023 RMK A01 T01420090  RH  071%=      5-min Rain = 0
KNH1 110844Z 12005KT 14/09 A3023 RMK A01 T01420090  RH  071%=      5-min Rain = 0
KNH1 110845Z 12005KT 14/09 A3023 RMK A01 T01420090  RH  071%=      5-min Rain = 0
KNH1 110846Z 12005KT 14/09 A3023 RMK A01 T01420090  RH  071%=      5-min Rain = 0
KNH1 110847Z 12005KT 14/09 A3023 RMK A01 T01410090  RH  071%=      5-min Rain = 0
KNH1 110848Z 12004KT 14/09 A3023 RMK A01 T01410090  RH  071%=      5-min Rain = 0
KNH1 110849Z 13004KT 14/09 A3023 RMK A01 T01410090  RH  071%=      5-min Rain = 0
KNH1 110850Z 13004KT 14/09 A3023 RMK A01 T01410090  RH  071%=      5-min Rain = 0
KNH1 110851Z 13004KT 14/09 A3023 RMK A01 T01410090  RH  072%=      5-min Rain = 0
KNH1 110852Z 13004KT 14/09 A3023 RMK A01 T01400090  RH  072%=      5-min Rain = 0
KNH1 110853Z 13004KT 14/09 A3023 RMK A01 T01410090  RH  072%=      5-min Rain = 0
KNH1 110854Z 13004KT 14/09 A3023 RMK A01 T01400090  RH  072%=      5-min Rain = 0
KNH1 110855Z 13004KT 14/09 A3024 RMK A01 T01400090  RH  072%=      5-min Rain = 0
KNH1 110856Z 13004KT 14/09 A3024 RMK A01 T01400090  RH  072%=      5-min Rain = 0
KNH1 110857Z 13004KT 14/09 A3024 RMK A01 T01400090  RH  072%=      5-min Rain = 0
KNH1 110858Z 13004KT 14/09 A3024 RMK A01 T01390090  RH  072%=      5-min Rain = 0
KNH1 110859Z 14004KT 14/09 A3024 RMK A01 T01400090  RH  072%=      5-min Rain = 0
KNH1 110900Z 14004KT 14/09 A3024 RMK A01 T01400090  RH  072%=      5-min Rain = 0
KNH1 110901Z 13004KT 14/09 A3024 RMK A01 T01400090  RH  072%=      5-min Rain = 0
KNH1 110902Z 14004KT 14/09 A3024 RMK A01 T01390089  RH  072%=      5-min Rain = 0
KNH1 110903Z 14004KT 14/09 A3024 RMK A01 T01400089  RH  072%=      5-min Rain = 0
KNH1 110904Z 13004KT 14/09 A3024 RMK A01 T01400089  RH  071%=      5-min Rain = 0
KNH1 110905Z 14004KT 14/09 A3024 RMK A01 T01400089  RH  071%=      5-min Rain = 0
KNH1 110906Z 14004KT 14/09 A3024 RMK A01 T01400089  RH  071%=      5-min Rain = 0
KNH1 110907Z 14004KT 14/09 A3024 RMK A01 T01400089  RH  071%=      5-min Rain = 0
KNH1 110908Z 13004KT 14/09 A3024 RMK A01 T01400089  RH  071%=      5-min Rain = 0
KNH1 110909Z 14004KT 14/09 A3024 RMK A01 T01400089  RH  071%=      5-min Rain = 0
KNH1 110910Z 13004KT 14/09 A3024 RMK A01 T01390088  RH  071%=      5-min Rain = 0
KNH1 110911Z 13004KT 14/09 A3024 RMK A01 T01400089  RH  071%=      5-min Rain = 0
KNH1 110912Z 13004KT 14/09 A3023 RMK A01 T01390089  RH  071%=      5-min Rain = 0
KNH1 110913Z 14004KT 14/09 A3023 RMK A01 T01400089  RH  071%=      5-min Rain = 0
KNH1 110914Z 14004KT 14/09 A3023 RMK A01 T01400089  RH  071%=      5-min Rain = 0
KNH1 110915Z 13005KT 14/09 A3023 RMK A01 T01390089  RH  071%=      5-min Rain = 0
KNH1 110916Z 13005KT 14/09 A3023 RMK A01 T01390088  RH  071%=      5-min Rain = 0
KNH1 110917Z 13005KT 14/09 A3023 RMK A01 T01390088  RH  071%=      5-min Rain = 0
KNH1 110918Z 13005KT 14/09 A3023 RMK A01 T01390089  RH  072%=      5-min Rain = 0
KNH1 110919Z 13005KT 14/09 A3023 RMK A01 T01390089  RH  072%=      5-min Rain = 0
KNH1 110920Z 13005KT 14/09 A3023 RMK A01 T01390089  RH  072%=      5-min Rain = 0
KNH1 110921Z 13005KT 14/09 A3023 RMK A01 T01390089  RH  072%=      5-min Rain = 0
KNH1 110922Z 13005KT 14/09 A3023 RMK A01 T01390089  RH  072%=      5-min Rain = 0
KNH1 110923Z 14004KT 14/09 A3023 RMK A01 T01390089  RH  072%=      5-min Rain = 0
KNH1 110924Z 13004KT 14/09 A3023 RMK A01 T01390089  RH  072%=      5-min Rain = 0
KNH1 110925Z 14004KT 14/09 A3023 RMK A01 T01380089  RH  072%=      5-min Rain = 0
KNH1 110926Z 14004KT 14/09 A3023 RMK A01 T01380089  RH  072%=      5-min Rain = 0
KNH1 110927Z 14004KT 14/09 A3023 RMK A01 T01380089  RH  072%=      5-min Rain = 0
KNH1 110928Z 14004KT 14/09 A3023 RMK A01 T01380089  RH  072%=      5-min Rain = 0
KNH1 110929Z 15004KT 14/09 A3023 RMK A01 T01370088  RH  072%=      5-min Rain = 0
KNH1 110930Z 15005KT 14/09 A3023 RMK A01 T01370088  RH  072%=      5-min Rain = 0
KNH1 110931Z 14004KT 14/09 A3023 RMK A01 T01370088  RH  072%=      5-min Rain = 0
KNH1 110932Z 14004KT 14/09 A3023 RMK A01 T01370088  RH  072%=      5-min Rain = 0
KNH1 110933Z 14004KT 14/09 A3023 RMK A01 T01360088  RH  072%=      5-min Rain = 0
KNH1 110934Z 14005KT 14/09 A3023 RMK A01 T01360088  RH  073%=      5-min Rain = 0
KNH1 110935Z 14005KT 14/09 A3023 RMK A01 T01360088  RH  073%=      5-min Rain = 0
KNH1 110936Z 14004KT 14/09 A3023 RMK A01 T01360088  RH  072%=      5-min Rain = 0
KNH1 110937Z 14005KT 14/09 A3023 RMK A01 T01360088  RH  072%=      5-min Rain = 0
KNH1 110938Z 14005KT 14/09 A3023 RMK A01 T01360088  RH  072%=      5-min Rain = 0
KNH1 110939Z 14005KT 14/09 A3023 RMK A01 T01370088  RH  072%=      5-min Rain = 0
KNH1 110940Z 14004KT 14/09 A3023 RMK A01 T01370088  RH  072%=      5-min Rain = 0
KNH1 110941Z 14004KT 14/09 A3023 RMK A01 T01360088  RH  073%=      5-min Rain = 0
KNH1 110942Z 14004KT 14/09 A3023 RMK A01 T01360088  RH  073%=      5-min Rain = 0
KNH1 110943Z 14004KT 14/09 A3023 RMK A01 T01360088  RH  073%=      5-min Rain = 0
KNH1 110944Z 14004KT 14/09 A3023 RMK A01 T01360089  RH  073%=      5-min Rain = 0
KNH1 110945Z 14004KT 14/09 A3023 RMK A01 T01360089  RH  073%=      5-min Rain = 0
KNH1 110946Z 15004KT 14/09 A3023 RMK A01 T01360089  RH  073%=      5-min Rain = 0
KNH1 110947Z 15004KT 14/09 A3023 RMK A01 T01360088  RH  073%=      5-min Rain = 0
KNH1 110948Z 15004KT 14/09 A3023 RMK A01 T01360089  RH  073%=      5-min Rain = 0
KNH1 110949Z 15003KT 14/09 A3023 RMK A01 T01360089  RH  073%=      5-min Rain = 0
KNH1 110950Z 14004KT 14/09 A3023 RMK A01 T01360089  RH  073%=      5-min Rain = 0
KNH1 110951Z 15004KT 14/09 A3023 RMK A01 T01360089  RH  073%=      5-min Rain = 0
KNH1 110952Z 14004KT 14/09 A3023 RMK A01 T01360088  RH  073%=      5-min Rain = 0
KNH1 110953Z 15004KT 14/09 A3023 RMK A01 T01360089  RH  073%=      5-min Rain = 0
KNH1 110954Z 14003KT 14/09 A3023 RMK A01 T01360089  RH  073%=      5-min Rain = 0
KNH1 110955Z 14004KT 14/09 A3023 RMK A01 T01360089  RH  073%=      5-min Rain = 0
KNH1 110956Z 14004KT 14/09 A3023 RMK A01 T01360088  RH  073%=      5-min Rain = 0
KNH1 110957Z 15004KT 14/09 A3023 RMK A01 T01360089  RH  073%=      5-min Rain = 0
KNH1 110958Z 14004KT 14/09 A3023 RMK A01 T01360089  RH  073%=      5-min Rain = 0
KNH1 110959Z 14004KT 14/09 A3023 RMK A01 T01360089  RH  073%=      5-min Rain = 0
KNH1 111000Z 14004KT 14/09 A3023 RMK A01 T01360088  RH  073%=      5-min Rain = 0
KNH1 111001Z 15003KT 14/09 A3023 RMK A01 T01360088  RH  073%=      5-min Rain = 0
KNH1 111002Z 14003KT 14/09 A3023 RMK A01 T01360088  RH  073%=      5-min Rain = 0
KNH1 111003Z 14003KT 14/09 A3023 RMK A01 T01360088  RH  073%=      5-min Rain = 0
KNH1 111004Z 14003KT 14/09 A3023 RMK A01 T01360088  RH  073%=      5-min Rain = 0
KNH1 111005Z 15004KT 14/09 A3023 RMK A01 T01370088  RH  072%=      5-min Rain = 0
KNH1 111006Z 15003KT 14/09 A3023 RMK A01 T01370088  RH  072%=      5-min Rain = 0
KNH1 111007Z 15003KT 14/09 A3023 RMK A01 T01370088  RH  072%=      5-min Rain = 0
KNH1 111008Z 15003KT 14/09 A3023 RMK A01 T01370088  RH  072%=      5-min Rain = 0
KNH1 111009Z 15004KT 14/09 A3023 RMK A01 T01370088  RH  072%=      5-min Rain = 0
KNH1 111010Z 15003KT 14/09 A3023 RMK A01 T01370088  RH  072%=      5-min Rain = 0
KNH1 111011Z 15003KT 14/09 A3023 RMK A01 T01370088  RH  072%=      5-min Rain = 0
KNH1 111012Z 16003KT 14/09 A3023 RMK A01 T01370088  RH  072%=      5-min Rain = 0
KNH1 111013Z 16002KT 14/09 A3023 RMK A01 T01370088  RH  072%=      5-min Rain = 0
KNH1 111014Z 16002KT 14/09 A3023 RMK A01 T01360087  RH  072%=      5-min Rain = 0
KNH1 111015Z 16001KT 13/09 A3023 RMK A01 T01320085  RH  073%=      5-min Rain = 0
KNH1 111016Z 16002KT 13/09 A3023 RMK A01 T01290085  RH  074%=      5-min Rain = 0
KNH1 111017Z 17001KT 13/09 A3023 RMK A01 T01270085  RH  075%=      5-min Rain = 0
KNH1 111018Z 17001KT 13/09 A3023 RMK A01 T01260085  RH  076%=      5-min Rain = 0
KNH1 111019Z 17001KT 12/08 A3023 RMK A01 T01240084  RH  077%=      5-min Rain = 0
KNH1 111020Z 17001KT 12/08 A3023 RMK A01 T01230084  RH  077%=      5-min Rain = 0
KNH1 111021Z 17001KT 12/08 A3023 RMK A01 T01220083  RH  077%=      5-min Rain = 0
KNH1 111022Z 16001KT 12/08 A3023 RMK A01 T01210083  RH  077%=      5-min Rain = 0
KNH1 111023Z 16001KT 12/08 A3023 RMK A01 T01210083  RH  077%=      5-min Rain = 0
KNH1 111024Z 15002KT 12/08 A3023 RMK A01 T01200083  RH  078%=      5-min Rain = 0
KNH1 111025Z 15002KT 12/08 A3023 RMK A01 T01200083  RH  078%=      5-min Rain = 0
KNH1 111026Z 16002KT 12/08 A3023 RMK A01 T01200083  RH  078%=      5-min Rain = 0
KNH1 111027Z 15002KT 12/08 A3023 RMK A01 T01200084  RH  078%=      5-min Rain = 0
KNH1 111028Z 14002KT 12/08 A3023 RMK A01 T01200084  RH  079%=      5-min Rain = 0
KNH1 111029Z 14003KT 12/09 A3023 RMK A01 T01210085  RH  079%=      5-min Rain = 0
KNH1 111030Z 14003KT 12/09 A3023 RMK A01 T01210085  RH  079%=      5-min Rain = 0
KNH1 111031Z 14003KT 12/09 A3023 RMK A01 T01220086  RH  078%=      5-min Rain = 0
KNH1 111032Z 14003KT 12/09 A3023 RMK A01 T01240086  RH  078%=      5-min Rain = 0
KNH1 111033Z 14003KT 13/09 A3023 RMK A01 T01250086  RH  077%=      5-min Rain = 0
KNH1 111034Z 14003KT 13/09 A3023 RMK A01 T01250086  RH  077%=      5-min Rain = 0
KNH1 111035Z 14003KT 13/09 A3023 RMK A01 T01260086  RH  077%=      5-min Rain = 0
KNH1 111036Z 14003KT 13/09 A3023 RMK A01 T01260086  RH  077%=      5-min Rain = 0
KNH1 111037Z 14003KT 13/09 A3023 RMK A01 T01270087  RH  076%=      5-min Rain = 0
KNH1 111038Z 14003KT 13/09 A3023 RMK A01 T01270087  RH  076%=      5-min Rain = 0
KNH1 111039Z 14003KT 13/09 A3023 RMK A01 T01280086  RH  076%=      5-min Rain = 0
KNH1 111040Z 15003KT 13/09 A3023 RMK A01 T01280086  RH  076%=      5-min Rain = 0
KNH1 111041Z 14003KT 13/09 A3023 RMK A01 T01280087  RH  076%=      5-min Rain = 0
KNH1 111042Z 14003KT 13/09 A3023 RMK A01 T01290086  RH  075%=      5-min Rain = 0
KNH1 111043Z 14003KT 13/09 A3023 RMK A01 T01290086  RH  075%=      5-min Rain = 0
KNH1 111044Z 14003KT 13/09 A3023 RMK A01 T01300086  RH  075%=      5-min Rain = 0
KNH1 111045Z 14003KT 13/09 A3023 RMK A01 T01300087  RH  075%=      5-min Rain = 0
KNH1 111046Z 14002KT 13/09 A3023 RMK A01 T01310087  RH  075%=      5-min Rain = 0
KNH1 111047Z 14002KT 13/09 A3023 RMK A01 T01320087  RH  074%=      5-min Rain = 0
KNH1 111048Z 14002KT 13/09 A3023 RMK A01 T01320087  RH  074%=      5-min Rain = 0
KNH1 111049Z 14002KT 13/09 A3023 RMK A01 T01320087  RH  074%=      5-min Rain = 0
KNH1 111050Z 15002KT 13/09 A3024 RMK A01 T01320087  RH  074%=      5-min Rain = 0
KNH1 111051Z 15002KT 13/09 A3024 RMK A01 T01310086  RH  074%=      5-min Rain = 0
KNH1 111052Z 15002KT 13/09 A3024 RMK A01 T01300085  RH  074%=      5-min Rain = 0
KNH1 111053Z 14002KT 13/09 A3024 RMK A01 T01290085  RH  074%=      5-min Rain = 0
KNH1 111054Z 15002KT 13/08 A3024 RMK A01 T01280084  RH  075%=      5-min Rain = 0
KNH1 111055Z 15002KT 13/08 A3024 RMK A01 T01280084  RH  075%=      5-min Rain = 0
KNH1 111056Z 15001KT 13/08 A3024 RMK A01 T01280084  RH  075%=      5-min Rain = 0
KNH1 111057Z 16002KT 13/08 A3024 RMK A01 T01280084  RH  075%=      5-min Rain = 0
KNH1 111058Z 16002KT 13/08 A3024 RMK A01 T01270084  RH  075%=      5-min Rain = 0
KNH1 111059Z 16002KT 13/09 A3024 RMK A01 T01270085  RH  076%=      5-min Rain = 0
KNH1 111100Z 16002KT 13/09 A3024 RMK A01 T01270085  RH  076%=      5-min Rain = 0
KNH1 111101Z 16002KT 13/09 A3024 RMK A01 T01270085  RH  076%=      5-min Rain = 0
KNH1 111102Z 17002KT 13/09 A3024 RMK A01 T01270085  RH  076%=      5-min Rain = 0
KNH1 111103Z 17002KT 13/09 A3024 RMK A01 T01270086  RH  076%=      5-min Rain = 0
KNH1 111104Z 17002KT 13/09 A3024 RMK A01 T01270085  RH  076%=      5-min Rain = 0
KNH1 111105Z 18002KT 13/09 A3024 RMK A01 T01270086  RH  076%=      5-min Rain = 0
KNH1 111106Z 17002KT 13/09 A3024 RMK A01 T01270086  RH  076%=      5-min Rain = 0
KNH1 111107Z 17002KT 13/09 A3024 RMK A01 T01260085  RH  076%=      5-min Rain = 0
KNH1 111108Z 17002KT 13/09 A3024 RMK A01 T01260085  RH  076%=      5-min Rain = 0
KNH1 111109Z 17002KT 13/09 A3024 RMK A01 T01260085  RH  076%=      5-min Rain = 0
KNH1 111110Z 18002KT 13/09 A3024 RMK A01 T01250086  RH  077%=      5-min Rain = 0
KNH1 111111Z 18002KT 13/09 A3024 RMK A01 T01250086  RH  077%=      5-min Rain = 0
KNH1 111112Z 17002KT 13/09 A3024 RMK A01 T01260087  RH  077%=      5-min Rain = 0
KNH1 111113Z 17002KT 13/09 A3024 RMK A01 T01260086  RH  077%=      5-min Rain = 0
KNH1 111114Z 18002KT 13/09 A3024 RMK A01 T01260086  RH  076%=      5-min Rain = 0
KNH1 111115Z 18002KT 13/09 A3024 RMK A01 T01270087  RH  077%=      5-min Rain = 0
KNH1 111116Z 18002KT 13/09 A3024 RMK A01 T01260086  RH  077%=      5-min Rain = 0
KNH1 111117Z 18002KT 13/09 A3024 RMK A01 T01260086  RH  077%=      5-min Rain = 0
KNH1 111118Z 17002KT 13/09 A3024 RMK A01 T01260086  RH  077%=      5-min Rain = 0
KNH1 111119Z 18002KT 13/09 A3024 RMK A01 T01260087  RH  077%=      5-min Rain = 0
KNH1 111120Z 18002KT 13/09 A3024 RMK A01 T01260087  RH  077%=      5-min Rain = 0
KNH1 111121Z 18002KT 13/09 A3024 RMK A01 T01260087  RH  077%=      5-min Rain = 0
KNH1 111122Z 18002KT 13/09 A3024 RMK A01 T01260086  RH  077%=      5-min Rain = 0
KNH1 111123Z 18002KT 13/09 A3024 RMK A01 T01250086  RH  077%=      5-min Rain = 0
KNH1 111124Z 18002KT 13/09 A3024 RMK A01 T01250086  RH  077%=      5-min Rain = 0
KNH1 111125Z 18002KT 12/09 A3024 RMK A01 T01240087  RH  078%=      5-min Rain = 0
KNH1 111126Z 18001KT 12/09 A3024 RMK A01 T01240087  RH  078%=      5-min Rain = 0
KNH1 111127Z 18001KT 12/09 A3024 RMK A01 T01240087  RH  078%=      5-min Rain = 0
KNH1 111128Z 19002KT 12/09 A3024 RMK A01 T01240086  RH  078%=      5-min Rain = 0
KNH1 111129Z 20002KT 12/09 A3024 RMK A01 T01240086  RH  078%=      5-min Rain = 0
KNH1 111130Z 20002KT 12/09 A3024 RMK A01 T01230085  RH  077%=      5-min Rain = 0
KNH1 111131Z 20002KT 12/08 A3024 RMK A01 T01230084  RH  077%=      5-min Rain = 0
KNH1 111132Z 20002KT 12/08 A3024 RMK A01 T01220084  RH  077%=      5-min Rain = 0
KNH1 111133Z 20002KT 12/08 A3024 RMK A01 T01210084  RH  078%=      5-min Rain = 0
KNH1 111134Z 19002KT 12/08 A3024 RMK A01 T01210083  RH  078%=      5-min Rain = 0
KNH1 111135Z 19002KT 12/08 A3024 RMK A01 T01210083  RH  078%=      5-min Rain = 0
KNH1 111136Z 19002KT 12/08 A3024 RMK A01 T01200083  RH  078%=      5-min Rain = 0
KNH1 111137Z 19002KT 12/08 A3024 RMK A01 T01200084  RH  079%=      5-min Rain = 0
KNH1 111138Z 19001KT 12/09 A3024 RMK A01 T01190085  RH  079%=      5-min Rain = 0
KNH1 111139Z 20002KT 12/09 A3024 RMK A01 T01190085  RH  080%=      5-min Rain = 0
KNH1 111140Z 20002KT 12/08 A3024 RMK A01 T01180083  RH  079%=      5-min Rain = 0
KNH1 111141Z 20002KT 12/08 A3024 RMK A01 T01180083  RH  079%=      5-min Rain = 0
KNH1 111142Z 20002KT 12/08 A3024 RMK A01 T01180083  RH  079%=      5-min Rain = 0
KNH1 111143Z 20002KT 12/08 A3024 RMK A01 T01180083  RH  079%=      5-min Rain = 0
KNH1 111144Z 20002KT 12/08 A3024 RMK A01 T01180084  RH  080%=      5-min Rain = 0
KNH1 111145Z 20002KT 12/08 A3024 RMK A01 T01170084  RH  080%=      5-min Rain = 0
KNH1 111146Z 21002KT 12/08 A3024 RMK A01 T01170083  RH  080%=      5-min Rain = 0
KNH1 111147Z 22002KT 12/08 A3024 RMK A01 T01170083  RH  080%=      5-min Rain = 0
KNH1 111148Z 22002KT 12/08 A3024 RMK A01 T01170084  RH  080%=      5-min Rain = 0
KNH1 111149Z 22002KT 12/09 A3024 RMK A01 T01170085  RH  080%=      5-min Rain = 0
KNH1 111150Z 23002KT 12/09 A3024 RMK A01 T01170085  RH  081%=      5-min Rain = 0
KNH1 111151Z 23002KT 12/08 A3024 RMK A01 T01170084  RH  080%=      5-min Rain = 0
KNH1 111152Z 23002KT 12/08 A3024 RMK A01 T01160084  RH  080%=      5-min Rain = 0
KNH1 111153Z 23001KT 12/08 A3024 RMK A01 T01160084  RH  080%=      5-min Rain = 0
KNH1 111154Z 23001KT 12/08 A3024 RMK A01 T01160084  RH  081%=      5-min Rain = 0
KNH1 111155Z 24001KT 12/08 A3025 RMK A01 T01160084  RH  081%=      5-min Rain = 0
KNH1 111156Z 26001KT 12/08 A3025 RMK A01 T01150084  RH  081%=      5-min Rain = 0
KNH1 111157Z 26001KT 12/09 A3025 RMK A01 T01150085  RH  082%=      5-min Rain = 0
KNH1 111158Z 26001KT 12/09 A3025 RMK A01 T01150085  RH  082%=      5-min Rain = 0
KNH1 111159Z 26001KT 12/08 A3025 RMK A01 T01150084  RH  082%=      5-min Rain = 0
KNH1 111200Z 26002KT 12/08 A3025 RMK A01 T01150084  RH  081%=      5-min Rain = 0
KNH1 111201Z 26002KT 11/08 A3025 RMK A01 T01140083  RH  081%=      5-min Rain = 0
KNH1 111202Z 26002KT 11/08 A3025 RMK A01 T01140083  RH  081%=      5-min Rain = 0
KNH1 111203Z 26002KT 11/08 A3025 RMK A01 T01140084  RH  082%=      5-min Rain = 0
KNH1 111204Z 26002KT 11/08 A3025 RMK A01 T01140084  RH  082%=      5-min Rain = 0
KNH1 111205Z 26002KT 11/08 A3025 RMK A01 T01140084  RH  082%=      5-min Rain = 0
KNH1 111206Z 26002KT 11/08 A3025 RMK A01 T01140084  RH  081%=      5-min Rain = 0
KNH1 111207Z 27002KT 12/08 A3025 RMK A01 T01150084  RH  081%=      5-min Rain = 0
KNH1 111208Z 27002KT 12/08 A3025 RMK A01 T01150083  RH  081%=      5-min Rain = 0
KNH1 111209Z 28002KT 12/08 A3025 RMK A01 T01150083  RH  080%=      5-min Rain = 0
KNH1 111210Z 28002KT 12/08 A3025 RMK A01 T01150083  RH  080%=      5-min Rain = 0
KNH1 111211Z 28002KT 12/08 A3025 RMK A01 T01150083  RH  081%=      5-min Rain = 0
KNH1 111212Z 28002KT 12/08 A3025 RMK A01 T01150082  RH  080%=      5-min Rain = 0
KNH1 111213Z 27002KT 11/08 A3025 RMK A01 T01140082  RH  080%=      5-min Rain = 0
KNH1 111214Z 27002KT 11/08 A3025 RMK A01 T01140082  RH  081%=      5-min Rain = 0
KNH1 111215Z 27002KT 11/08 A3025 RMK A01 T01140082  RH  081%=      5-min Rain = 0
KNH1 111216Z 27002KT 11/08 A3025 RMK A01 T01130082  RH  081%=      5-min Rain = 0
KNH1 111217Z 27002KT 11/08 A3025 RMK A01 T01130082  RH  081%=      5-min Rain = 0
KNH1 111218Z 27002KT 11/08 A3025 RMK A01 T01130082  RH  081%=      5-min Rain = 0
KNH1 111219Z 27002KT 11/08 A3025 RMK A01 T01120082  RH  082%=      5-min Rain = 0
KNH1 111220Z 27002KT 11/08 A3025 RMK A01 T01120082  RH  082%=      5-min Rain = 0
KNH1 111221Z 27002KT 11/08 A3025 RMK A01 T01120082  RH  082%=      5-min Rain = 0
KNH1 111222Z 27002KT 11/08 A3025 RMK A01 T01120082  RH  082%=      5-min Rain = 0
KNH1 111223Z 27002KT 11/08 A3025 RMK A01 T01120083  RH  082%=      5-min Rain = 0
KNH1 111224Z 28003KT 11/08 A3025 RMK A01 T01120083  RH  082%=      5-min Rain = 0
KNH1 111225Z 28002KT 11/08 A3025 RMK A01 T01120082  RH  082%=      5-min Rain = 0
KNH1 111226Z 27002KT 11/08 A3025 RMK A01 T01120082  RH  082%=      5-min Rain = 0
KNH1 111227Z 28002KT 11/08 A3025 RMK A01 T01120081  RH  082%=      5-min Rain = 0
KNH1 111228Z 28002KT 11/08 A3025 RMK A01 T01110081  RH  081%=      5-min Rain = 0
KNH1 111229Z 27002KT 11/08 A3025 RMK A01 T01110081  RH  082%=      5-min Rain = 0
KNH1 111230Z 27002KT 11/08 A3025 RMK A01 T01110082  RH  082%=      5-min Rain = 0
KNH1 111231Z 27002KT 11/08 A3025 RMK A01 T01110082  RH  082%=      5-min Rain = 0
KNH1 111232Z 27003KT 11/08 A3025 RMK A01 T01110081  RH  082%=      5-min Rain = 0
KNH1 111233Z 27003KT 11/08 A3025 RMK A01 T01110081  RH  082%=      5-min Rain = 0
KNH1 111234Z 28003KT 11/08 A3025 RMK A01 T01110081  RH  082%=      5-min Rain = 0
KNH1 111235Z 27003KT 11/08 A3025 RMK A01 T01110082  RH  082%=      5-min Rain = 0
KNH1 111236Z 27003KT 11/08 A3025 RMK A01 T01110082  RH  082%=      5-min Rain = 0
KNH1 111237Z 27003KT 11/08 A3025 RMK A01 T01110082  RH  082%=      5-min Rain = 0
KNH1 111238Z 27003KT 11/08 A3025 RMK A01 T01120083  RH  082%=      5-min Rain = 0
KNH1 111239Z 27003KT 11/08 A3025 RMK A01 T01120082  RH  082%=      5-min Rain = 0
KNH1 111240Z 27003KT 11/08 A3025 RMK A01 T01120082  RH  082%=      5-min Rain = 0
KNH1 111241Z 26003KT 11/08 A3025 RMK A01 T01110082  RH  082%=      5-min Rain = 0
KNH1 111242Z 26003KT 11/08 A3025 RMK A01 T01110081  RH  082%=      5-min Rain = 0
KNH1 111243Z 26004KT 11/08 A3025 RMK A01 T01100080  RH  082%=      5-min Rain = 0
KNH1 111244Z 26003KT 11/08 A3025 RMK A01 T01100081  RH  082%=      5-min Rain = 0
KNH1 111245Z 26003KT 11/08 A3025 RMK A01 T01100082  RH  083%=      5-min Rain = 0
KNH1 111246Z 26004KT 11/08 A3025 RMK A01 T01100082  RH  083%=      5-min Rain = 0
KNH1 111247Z 26004KT 11/08 A3025 RMK A01 T01100082  RH  083%=      5-min Rain = 0
KNH1 111248Z 26004KT 11/08 A3025 RMK A01 T01100082  RH  083%=      5-min Rain = 0
KNH1 111249Z 26004KT 11/08 A3025 RMK A01 T01100081  RH  083%=      5-min Rain = 0
KNH1 111250Z 26004KT 11/08 A3025 RMK A01 T01100081  RH  082%=      5-min Rain = 0
KNH1 111251Z 25004KT 11/08 A3025 RMK A01 T01100081  RH  082%=      5-min Rain = 0
KNH1 111252Z 25004KT 11/08 A3025 RMK A01 T01110082  RH  082%=      5-min Rain = 0
KNH1 111253Z 25004KT 11/08 A3025 RMK A01 T01110081  RH  082%=      5-min Rain = 0
KNH1 111254Z 25004KT 11/08 A3025 RMK A01 T01120081  RH  081%=      5-min Rain = 0
KNH1 111255Z 25004KT 11/08 A3025 RMK A01 T01120080  RH  081%=      5-min Rain = 0
KNH1 111256Z 25005KT 11/08 A3025 RMK A01 T01120080  RH  081%=      5-min Rain = 0
KNH1 111257Z 25005KT 11/08 A3025 RMK A01 T01120081  RH  081%=      5-min Rain = 0
KNH1 111258Z 25005KT 11/08 A3025 RMK A01 T01120082  RH  082%=      5-min Rain = 0
KNH1 111259Z 25004KT 11/08 A3025 RMK A01 T01130083  RH  082%=      5-min Rain = 0
KNH1 111300Z 26004KT 11/08 A3025 RMK A01 T01130083  RH  082%=      5-min Rain = 0
KNH1 111301Z 26004KT 11/08 A3025 RMK A01 T01140083  RH  081%=      5-min Rain = 0
KNH1 111302Z 26004KT 12/08 A3025 RMK A01 T01150083  RH  081%=      5-min Rain = 0
KNH1 111303Z 26004KT 12/08 A3025 RMK A01 T01160084  RH  081%=      5-min Rain = 0
KNH1 111304Z 26004KT 12/08 A3025 RMK A01 T01170084  RH  080%=      5-min Rain = 0
KNH1 111305Z 26004KT 12/09 A3025 RMK A01 T01180085  RH  080%=      5-min Rain = 0
KNH1 111306Z 26004KT 12/09 A3025 RMK A01 T01190086  RH  080%=      5-min Rain = 0
KNH1 111307Z 26003KT 12/09 A3025 RMK A01 T01200086  RH  080%=      5-min Rain = 0
KNH1 111308Z 26003KT 12/09 A3025 RMK A01 T01210086  RH  080%=      5-min Rain = 0
KNH1 111309Z 26003KT 12/09 A3025 RMK A01 T01220087  RH  079%=      5-min Rain = 0
KNH1 111310Z 27002KT 12/09 A3025 RMK A01 T01220088  RH  079%=      5-min Rain = 0
KNH1 111311Z 27002KT 12/09 A3025 RMK A01 T01230089  RH  080%=      5-min Rain = 0
KNH1 111312Z 27003KT 13/09 A3025 RMK A01 T01250091  RH  080%=      5-min Rain = 0
KNH1 111313Z 27003KT 13/09 A3025 RMK A01 T01270092  RH  079%=      5-min Rain = 0
KNH1 111314Z 28003KT 13/09 A3025 RMK A01 T01280092  RH  079%=      5-min Rain = 0
KNH1 111315Z 28003KT 13/09 A3025 RMK A01 T01300092  RH  078%=      5-min Rain = 0
KNH1 111316Z 28003KT 13/09 A3025 RMK A01 T01310091  RH  077%=      5-min Rain = 0
KNH1 111317Z 28002KT 13/09 A3025 RMK A01 T01320092  RH  077%=      5-min Rain = 0
KNH1 111318Z 28002KT 13/09 A3025 RMK A01 T01330093  RH  076%=      5-min Rain = 0
KNH1 111319Z 29002KT 14/09 A3025 RMK A01 T01350093  RH  076%=      5-min Rain = 0
KNH1 111320Z 29002KT 14/09 A3025 RMK A01 T01360092  RH  075%=      5-min Rain = 0
KNH1 111321Z 29002KT 14/09 A3025 RMK A01 T01380092  RH  074%=      5-min Rain = 0
KNH1 111322Z 29001KT 14/09 A3025 RMK A01 T01390092  RH  074%=      5-min Rain = 0
KNH1 111323Z 28001KT 14/09 A3025 RMK A01 T01390093  RH  074%=      5-min Rain = 0
KNH1 111324Z 29001KT 14/09 A3025 RMK A01 T01400093  RH  073%=      5-min Rain = 0
KNH1 111325Z 28001KT 14/09 A3025 RMK A01 T01410094  RH  073%=      5-min Rain = 0
KNH1 111326Z 29001KT 14/09 A3025 RMK A01 T01420094  RH  073%=      5-min Rain = 0
KNH1 111327Z 30000KT 14/09 A3025 RMK A01 T01420094  RH  073%=      5-min Rain = 0
KNH1 111328Z 30000KT 14/09 A3025 RMK A01 T01430093  RH  072%=      5-min Rain = 0
KNH1 111329Z 30000KT 15/09 A3025 RMK A01 T01450093  RH  071%=      5-min Rain = 0
KNH1 111330Z 29001KT 15/09 A3025 RMK A01 T01460092  RH  070%=      5-min Rain = 0
KNH1 111331Z 29000KT 15/09 A3025 RMK A01 T01470093  RH  070%=      5-min Rain = 0
KNH1 111332Z 29001KT 15/09 A3025 RMK A01 T01480093  RH  069%=      5-min Rain = 0
KNH1 111333Z 30001KT 15/09 A3025 RMK A01 T01490093  RH  069%=      5-min Rain = 0
KNH1 111334Z 29001KT 15/09 A3025 RMK A01 T01490094  RH  069%=      5-min Rain = 0
KNH1 111335Z 29001KT 15/09 A3025 RMK A01 T01500094  RH  069%=      5-min Rain = 0
KNH1 111336Z 28001KT 15/09 A3025 RMK A01 T01500094  RH  069%=      5-min Rain = 0
KNH1 111337Z 29001KT 15/10 A3025 RMK A01 T01510095  RH  069%=      5-min Rain = 0
KNH1 111338Z 23001KT 15/10 A3025 RMK A01 T01520095  RH  069%=      5-min Rain = 0
KNH1 111339Z 25000KT 15/10 A3025 RMK A01 T01530096  RH  069%=      5-min Rain = 0
KNH1 111340Z 22001KT 15/10 A3025 RMK A01 T01540095  RH  068%=      5-min Rain = 0
KNH1 111341Z 26001KT 16/10 A3026 RMK A01 T01550096  RH  068%=      5-min Rain = 0
KNH1 111342Z 28001KT 16/10 A3026 RMK A01 T01560096  RH  067%=      5-min Rain = 0
KNH1 111343Z 27001KT 16/10 A3026 RMK A01 T01580096  RH  067%=      5-min Rain = 0
KNH1 111344Z 28001KT 16/10 A3026 RMK A01 T01590096  RH  067%=      5-min Rain = 0
KNH1 111345Z 27002KT 16/10 A3026 RMK A01 T01600096  RH  066%=      5-min Rain = 0
KNH1 111346Z 27001KT 16/10 A3026 RMK A01 T01600096  RH  066%=      5-min Rain = 0
KNH1 111347Z 26002KT 16/10 A3025 RMK A01 T01610095  RH  065%=      5-min Rain = 0
KNH1 111348Z 26001KT 16/10 A3025 RMK A01 T01610096  RH  065%=      5-min Rain = 0
KNH1 111349Z 27002KT 16/10 A3025 RMK A01 T01620097  RH  065%=      5-min Rain = 0
KNH1 111350Z 27002KT 16/10 A3025 RMK A01 T01630097  RH  065%=      5-min Rain = 0
KNH1 111351Z 27002KT 16/10 A3025 RMK A01 T01640098  RH  065%=      5-min Rain = 0
KNH1 111352Z 27002KT 16/10 A3025 RMK A01 T01640098  RH  065%=      5-min Rain = 0
KNH1 111353Z 27002KT 17/10 A3025 RMK A01 T01650097  RH  064%=      5-min Rain = 0
KNH1 111354Z 27001KT 17/10 A3025 RMK A01 T01660099  RH  065%=      5-min Rain = 0
KNH1 111355Z 26002KT 17/10 A3026 RMK A01 T01670102  RH  065%=      5-min Rain = 0
KNH1 111356Z 26003KT 17/10 A3026 RMK A01 T01670098  RH  064%=      5-min Rain = 0
KNH1 111357Z 26002KT 17/10 A3026 RMK A01 T01660099  RH  065%=      5-min Rain = 0
KNH1 111358Z 26002KT 17/10 A3026 RMK A01 T01660101  RH  066%=      5-min Rain = 0
KNH1 111359Z 26002KT 17/10 A3026 RMK A01 T01670101  RH  065%=      5-min Rain = 0
KNH1 111400Z 26003KT 17/10 A3026 RMK A01 T01670101  RH  065%=      5-min Rain = 0
KNH1 111401Z 26004KT 17/10 A3026 RMK A01 T01680103  RH  065%=      5-min Rain = 0
KNH1 111402Z 26003KT 17/10 A3026 RMK A01 T01690101  RH  064%=      5-min Rain = 0
KNH1 111403Z 25003KT 17/10 A3026 RMK A01 T01700101  RH  064%=      5-min Rain = 0
KNH1 111404Z 26003KT 17/10 A3026 RMK A01 T01700103  RH  065%=      5-min Rain = 0
KNH1 111405Z 26003KT 17/10 A3026 RMK A01 T01710102  RH  064%=      5-min Rain = 0
KNH1 111406Z 25003KT 17/10 A3026 RMK A01 T01720103  RH  064%=      5-min Rain = 0
KNH1 111407Z 25003KT 17/10 A3026 RMK A01 T01710104  RH  064%=      5-min Rain = 0
KNH1 111408Z 25003KT 17/11 A3026 RMK A01 T01720105  RH  065%=      5-min Rain = 0
KNH1 111409Z 25005KT 17/10 A3026 RMK A01 T01730104  RH  064%=      5-min Rain = 0
KNH1 111410Z 24004KT 18/10 A3026 RMK A01 T01750104  RH  063%=      5-min Rain = 0
KNH1 111411Z 24004KT 18/10 A3026 RMK A01 T01760102  RH  062%=      5-min Rain = 0
KNH1 111412Z 25003KT 18/10 A3026 RMK A01 T01770103  RH  062%=      5-min Rain = 0
KNH1 111413Z 24003KT 18/11 A3026 RMK A01 T01780105  RH  063%=      5-min Rain = 0
KNH1 111414Z 24003KT 18/11 A3026 RMK A01 T01790107  RH  063%=      5-min Rain = 0
KNH1 111415Z 24003KT 18/11 A3026 RMK A01 T01800106  RH  062%=      5-min Rain = 0
KNH1 111416Z 24004KT 18/11 A3026 RMK A01 T01810105  RH  061%=      5-min Rain = 0
KNH1 111417Z 24006KT 18/10 A3026 RMK A01 T01820103  RH  060%=      5-min Rain = 0
KNH1 111418Z 23006KT 18/10 A3026 RMK A01 T01830100  RH  058%=      5-min Rain = 0
KNH1 111419Z 24006KT 18/10 A3026 RMK A01 T01840102  RH  059%=      5-min Rain = 0
KNH1 111420Z 24007KT 19/10 A3026 RMK A01 T01850102  RH  058%=      5-min Rain = 0
KNH1 111421Z 23006KT 19/10 A3026 RMK A01 T01860102  RH  058%=      5-min Rain = 0
KNH1 111422Z 23004KT 19/10 A3026 RMK A01 T01860101  RH  058%=      5-min Rain = 0
KNH1 111423Z 23004KT 19/10 A3026 RMK A01 T01870103  RH  058%=      5-min Rain = 0
KNH1 111424Z 23003KT 19/11 A3026 RMK A01 T01880106  RH  059%=      5-min Rain = 0
KNH1 111425Z 25004KT 19/11 A3026 RMK A01 T01890106  RH  058%=      5-min Rain = 0
KNH1 111426Z 24006KT 19/11 A3026 RMK A01 T01900105  RH  058%=      5-min Rain = 0
KNH1 111427Z 23005KT 19/10 A3026 RMK A01 T01910103  RH  057%=      5-min Rain = 0
KNH1 111428Z 24005KT 19/11 A3026 RMK A01 T01910106  RH  058%=      5-min Rain = 0
KNH1 111429Z 24007KT 19/11 A3026 RMK A01 T01910106  RH  058%=      5-min Rain = 0
KNH1 111430Z 24006KT 19/10 A3026 RMK A01 T01910104  RH  057%=      5-min Rain = 0
KNH1 111431Z 23006KT 19/11 A3026 RMK A01 T01920106  RH  057%=      5-min Rain = 0
KNH1 111432Z 23006KT 19/11 A3026 RMK A01 T01920106  RH  057%=      5-min Rain = 0
KNH1 111433Z 23006KT 19/11 A3026 RMK A01 T01930105  RH  057%=      5-min Rain = 0
KNH1 111434Z 22006KT 19/10 A3026 RMK A01 T01920104  RH  056%=      5-min Rain = 0
KNH1 111435Z 23006KT 19/10 A3026 RMK A01 T01920104  RH  057%=      5-min Rain = 0
KNH1 111436Z 24005KT 19/11 A3026 RMK A01 T01920106  RH  057%=      5-min Rain = 0
KNH1 111437Z 23005KT 19/11 A3026 RMK A01 T01930107  RH  057%=      5-min Rain = 0
KNH1 111438Z 24005KT 19/11 A3026 RMK A01 T01940107  RH  057%=      5-min Rain = 0
KNH1 111439Z 23006KT 20/11 A3026 RMK A01 T01950109  RH  058%=      5-min Rain = 0
KNH1 111440Z 22006KT 20/11 A3026 RMK A01 T01960106  RH  056%=      5-min Rain = 0
KNH1 111441Z 23005KT 20/11 A3026 RMK A01 T01960107  RH  056%=      5-min Rain = 0
KNH1 111442Z 23005KT 20/11 A3026 RMK A01 T01970109  RH  057%=      5-min Rain = 0
KNH1 111443Z 24004KT 20/11 A3026 RMK A01 T01980110  RH  057%=      5-min Rain = 0
KNH1 111444Z 24007KT 20/11 A3026 RMK A01 T02000109  RH  056%=      5-min Rain = 0
KNH1 111445Z 25007KT 20/11 A3026 RMK A01 T02000107  RH  055%=      5-min Rain = 0
KNH1 111446Z 24006KT 20/11 A3026 RMK A01 T01990107  RH  055%=      5-min Rain = 0
KNH1 111447Z 23007KT 20/11 A3026 RMK A01 T01990107  RH  055%=      5-min Rain = 0
KNH1 111448Z 22006KT 20/11 A3026 RMK A01 T02000106  RH  055%=      5-min Rain = 0
KNH1 111449Z 23005KT 20/11 A3026 RMK A01 T02000106  RH  055%=      5-min Rain = 0
KNH1 111450Z 24006KT 20/11 A3026 RMK A01 T02000108  RH  055%=      5-min Rain = 0
KNH1 111451Z 24007KT 20/11 A3026 RMK A01 T02020109  RH  055%=      5-min Rain = 0
KNH1 111452Z 24006KT 20/11 A3026 RMK A01 T02020108  RH  055%=      5-min Rain = 0
KNH1 111453Z 23006KT 20/11 A3026 RMK A01 T02030110  RH  055%=      5-min Rain = 0
KNH1 111454Z 24007KT 20/11 A3026 RMK A01 T02040108  RH  054%=      5-min Rain = 0
KNH1 111455Z 24007KT 21/11 A3026 RMK A01 T02050109  RH  054%=      5-min Rain = 0
KNH1 111456Z 23008KT 21/11 A3026 RMK A01 T02050107  RH  053%=      5-min Rain = 0
KNH1 111457Z 23006KT 21/11 A3026 RMK A01 T02050107  RH  053%=      5-min Rain = 0
KNH1 111458Z 24005KT 20/11 A3026 RMK A01 T02040108  RH  054%=      5-min Rain = 0
KNH1 111459Z 23007KT 21/11 A3026 RMK A01 T02060108  RH  054%=      5-min Rain = 0
KNH1 111500Z 23007KT 21/11 A3026 RMK A01 T02070108  RH  053%=      5-min Rain = 0
KNH1 111501Z 23005KT 21/11 A3026 RMK A01 T02060106  RH  053%=      5-min Rain = 0
KNH1 111502Z 23006KT 21/11 A3026 RMK A01 T02060108  RH  053%=      5-min Rain = 0
KNH1 111503Z 24007KT 21/11 A3026 RMK A01 T02070106  RH  053%=      5-min Rain = 0
KNH1 111504Z 24007KT 21/11 A3026 RMK A01 T02070107  RH  053%=      5-min Rain = 0
KNH1 111505Z 23006KT 21/11 A3026 RMK A01 T02070107  RH  053%=      5-min Rain = 0
KNH1 111506Z 23007KT 21/11 A3026 RMK A01 T02070109  RH  053%=      5-min Rain = 0
KNH1 111507Z 22007KT 21/11 A3026 RMK A01 T02070107  RH  053%=      5-min Rain = 0
KNH1 111508Z 22004KT 21/11 A3026 RMK A01 T02070108  RH  053%=      5-min Rain = 0
KNH1 111509Z 23005KT 21/11 A3026 RMK A01 T02080109  RH  053%=      5-min Rain = 0
KNH1 111510Z 22006KT 21/11 A3026 RMK A01 T02090109  RH  053%=      5-min Rain = 0
KNH1 111511Z 22005KT 21/11 A3026 RMK A01 T02110110  RH  052%=      5-min Rain = 0
KNH1 111512Z 22005KT 21/11 A3026 RMK A01 T02130112  RH  052%=      5-min Rain = 0
KNH1 111513Z 23005KT 21/11 A3026 RMK A01 T02140113  RH  052%=      5-min Rain = 0
KNH1 111514Z 24007KT 22/11 A3026 RMK A01 T02160112  RH  052%=      5-min Rain = 0
KNH1 111515Z 25006KT 22/11 A3026 RMK A01 T02160109  RH  050%=      5-min Rain = 0
KNH1 111516Z 23006KT 22/11 A3026 RMK A01 T02150110  RH  051%=      5-min Rain = 0
KNH1 111517Z 25006KT 22/11 A3026 RMK A01 T02150110  RH  051%=      5-min Rain = 0
KNH1 111518Z 25005KT 22/11 A3026 RMK A01 T02160110  RH  051%=      5-min Rain = 0
KNH1 111519Z 23007KT 22/11 A3026 RMK A01 T02170112  RH  051%=      5-min Rain = 0
KNH1 111520Z 23008KT 22/11 A3026 RMK A01 T02180108  RH  050%=      5-min Rain = 0
KNH1 111521Z 23006KT 22/11 A3026 RMK A01 T02180108  RH  050%=      5-min Rain = 0
KNH1 111522Z 22006KT 22/11 A3026 RMK A01 T02180109  RH  050%=      5-min Rain = 0
KNH1 111523Z 23005KT 22/11 A3026 RMK A01 T02180109  RH  050%=      5-min Rain = 0
KNH1 111524Z 23005KT 22/11 A3026 RMK A01 T02190112  RH  050%=      5-min Rain = 0
KNH1 111525Z 24007KT 22/11 A3026 RMK A01 T02200109  RH  049%=      5-min Rain = 0
KNH1 111526Z 23007KT 22/11 A3026 RMK A01 T02200110  RH  049%=      5-min Rain = 0
KNH1 111527Z 23007KT 22/11 A3026 RMK A01 T02190109  RH  050%=      5-min Rain = 0
KNH1 111528Z 23006KT 22/11 A3026 RMK A01 T02190108  RH  049%=      5-min Rain = 0
KNH1 111529Z 24007KT 22/11 A3026 RMK A01 T02200109  RH  049%=      5-min Rain = 0
KNH1 111530Z 21005KT 22/11 A3026 RMK A01 T02200109  RH  049%=      5-min Rain = 0
KNH1 111531Z 21005KT 22/11 A3026 RMK A01 T02200110  RH  050%=      5-min Rain = 0
KNH1 111532Z 23005KT 22/11 A3026 RMK A01 T02210109  RH  049%=      5-min Rain = 0
KNH1 111533Z 24007KT 22/11 A3026 RMK A01 T02220113  RH  050%=      5-min Rain = 0
KNH1 111534Z 23006KT 22/11 A3026 RMK A01 T02240112  RH  049%=      5-min Rain = 0
KNH1 111535Z 24005KT 23/11 A3026 RMK A01 T02250111  RH  048%=      5-min Rain = 0
KNH1 111536Z 23006KT 23/11 A3026 RMK A01 T02260114  RH  049%=      5-min Rain = 0
KNH1 111537Z 22007KT 23/11 A3026 RMK A01 T02280110  RH  047%=      5-min Rain = 0
KNH1 111538Z 23007KT 23/11 A3026 RMK A01 T02280112  RH  048%=      5-min Rain = 0
KNH1 111539Z 24007KT 23/11 A3026 RMK A01 T02290112  RH  048%=      5-min Rain = 0
KNH1 111540Z 26006KT 23/11 A3026 RMK A01 T02270111  RH  048%=      5-min Rain = 0
KNH1 111541Z 26005KT 22/11 A3026 RMK A01 T02240111  RH  049%=      5-min Rain = 0
KNH1 111542Z 24007KT 22/11 A3026 RMK A01 T02240113  RH  050%=      5-min Rain = 0
KNH1 111543Z 25006KT 23/11 A3026 RMK A01 T02260111  RH  048%=      5-min Rain = 0
KNH1 111544Z 25005KT 23/11 A3026 RMK A01 T02260110  RH  048%=      5-min Rain = 0
KNH1 111545Z 24006KT 23/11 A3026 RMK A01 T02260113  RH  049%=      5-min Rain = 0
KNH1 111546Z 24005KT 23/11 A3026 RMK A01 T02280114  RH  049%=      5-min Rain = 0
KNH1 111547Z 25006KT 23/11 A3026 RMK A01 T02290114  RH  048%=      5-min Rain = 0
KNH1 111548Z 26004KT 23/11 A3026 RMK A01 T02310113  RH  047%=      5-min Rain = 0
KNH1 111549Z 24005KT 23/11 A3026 RMK A01 T02310114  RH  047%=      5-min Rain = 0
KNH1 111550Z 24007KT 23/11 A3026 RMK A01 T02330114  RH  047%=      5-min Rain = 0
KNH1 111551Z 24005KT 23/11 A3026 RMK A01 T02320112  RH  047%=      5-min Rain = 0
KNH1 111552Z 25005KT 23/11 A3026 RMK A01 T02310112  RH  047%=      5-min Rain = 0
KNH1 111553Z 25005KT 23/11 A3026 RMK A01 T02310112  RH  047%=      5-min Rain = 0
KNH1 111554Z 26007KT 23/11 A3026 RMK A01 T02310112  RH  047%=      5-min Rain = 0
KNH1 111555Z 26006KT 23/11 A3026 RMK A01 T02320111  RH  047%=      5-min Rain = 0
KNH1 111556Z 23006KT 24/11 A3026 RMK A01 T02350112  RH  046%=      5-min Rain = 0
KNH1 111557Z 24004KT 24/11 A3026 RMK A01 T02350111  RH  045%=      5-min Rain = 0
KNH1 111558Z 25006KT 24/12 A3026 RMK A01 T02350115  RH  047%=      5-min Rain = 0
KNH1 111559Z 26004KT 24/11 A3026 RMK A01 T02360112  RH  045%=      5-min Rain = 0
KNH1 111600Z 24003KT 23/11 A3026 RMK A01 T02340110  RH  046%=      5-min Rain = 0
KNH1 111601Z 23007KT 23/11 A3026 RMK A01 T02330113  RH  047%=      5-min Rain = 0
KNH1 111602Z 23005KT 24/11 A3026 RMK A01 T02350112  RH  046%=      5-min Rain = 0
KNH1 111603Z 21004KT 24/11 A3026 RMK A01 T02360113  RH  046%=      5-min Rain = 0
KNH1 111604Z 20005KT 24/11 A3026 RMK A01 T02370114  RH  046%=      5-min Rain = 0
KNH1 111605Z 21004KT 24/11 A3026 RMK A01 T02380111  RH  045%=      5-min Rain = 0
KNH1 111606Z 26005KT 24/11 A3026 RMK A01 T02370113  RH  046%=      5-min Rain = 0
KNH1 111607Z 24007KT 24/11 A3026 RMK A01 T02390112  RH  045%=      5-min Rain = 0
KNH1 111608Z 23006KT 24/11 A3026 RMK A01 T02380110  RH  044%=      5-min Rain = 0
KNH1 111609Z 26004KT 24/11 A3026 RMK A01 T02350110  RH  045%=      5-min Rain = 0
KNH1 111610Z 26006KT 24/11 A3026 RMK A01 T02350113  RH  046%=      5-min Rain = 0
KNH1 111611Z 26006KT 24/11 A3026 RMK A01 T02380114  RH  046%=      5-min Rain = 0
KNH1 111612Z 27005KT 24/11 A3026 RMK A01 T02390110  RH  044%=      5-min Rain = 0
KNH1 111613Z 27004KT 24/11 A3026 RMK A01 T02390111  RH  044%=      5-min Rain = 0
KNH1 111614Z 24005KT 24/11 A3026 RMK A01 T02390114  RH  045%=      5-min Rain = 0
KNH1 111615Z 24004KT 24/11 A3026 RMK A01 T02390110  RH  044%=      5-min Rain = 0
KNH1 111616Z 22005KT 24/11 A3026 RMK A01 T02370112  RH  045%=      5-min Rain = 0
KNH1 111617Z 22003KT 24/11 A3026 RMK A01 T02370110  RH  045%=      5-min Rain = 0
KNH1 111618Z 25004KT 24/11 A3026 RMK A01 T02370113  RH  046%=      5-min Rain = 0
KNH1 111619Z 26005KT 24/12 A3026 RMK A01 T02390115  RH  046%=      5-min Rain = 0
KNH1 111620Z 25006KT 24/11 A3026 RMK A01 T02430111  RH  044%=      5-min Rain = 0
KNH1 111621Z 27005KT 24/11 A3026 RMK A01 T02430111  RH  043%=      5-min Rain = 0
KNH1 111622Z 26006KT 24/11 A3026 RMK A01 T02430110  RH  043%=      5-min Rain = 0
KNH1 111623Z 25004KT 24/11 A3026 RMK A01 T02410111  RH  044%=      5-min Rain = 0
KNH1 111624Z 25005KT 24/11 A3026 RMK A01 T02410111  RH  044%=      5-min Rain = 0
KNH1 111625Z 23004KT 24/11 A3026 RMK A01 T02410111  RH  044%=      5-min Rain = 0
KNH1 111626Z 27006KT 24/11 A3026 RMK A01 T02430110  RH  043%=      5-min Rain = 0
KNH1 111627Z 28005KT 24/11 A3026 RMK A01 T02430105  RH  042%=      5-min Rain = 0
KNH1 111628Z 22005KT 24/11 A3026 RMK A01 T02430108  RH  042%=      5-min Rain = 0
KNH1 111629Z 23005KT 24/11 A3026 RMK A01 T02440105  RH  042%=      5-min Rain = 0
KNH1 111630Z 25007KT 24/11 A3026 RMK A01 T02440108  RH  042%=      5-min Rain = 0
KNH1 111631Z 25005KT 24/11 A3026 RMK A01 T02440109  RH  043%=      5-min Rain = 0
KNH1 111632Z 27005KT 24/11 A3026 RMK A01 T02430109  RH  043%=      5-min Rain = 0
KNH1 111633Z 29003KT 24/11 A3026 RMK A01 T02420106  RH  042%=      5-min Rain = 0
KNH1 111634Z 29004KT 24/11 A3026 RMK A01 T02430107  RH  042%=      5-min Rain = 0
KNH1 111635Z 26005KT 25/11 A3026 RMK A01 T02460110  RH  042%=      5-min Rain = 0
KNH1 111636Z 24005KT 25/11 A3026 RMK A01 T02480111  RH  042%=      5-min Rain = 0
KNH1 111637Z 23004KT 25/11 A3026 RMK A01 T02490112  RH  042%=      5-min Rain = 0
KNH1 111638Z 24002KT 25/11 A3026 RMK A01 T02490112  RH  042%=      5-min Rain = 0
KNH1 111639Z 26003KT 25/11 A3026 RMK A01 T02490109  RH  042%=      5-min Rain = 0
KNH1 111640Z 25005KT 25/11 A3026 RMK A01 T02500110  RH  042%=      5-min Rain = 0
KNH1 111641Z 27005KT 25/11 A3026 RMK A01 T02500108  RH  041%=      5-min Rain = 0
KNH1 111642Z 27005KT 25/11 A3026 RMK A01 T02500106  RH  040%=      5-min Rain = 0
KNH1 111643Z 28004KT 25/11 A3026 RMK A01 T02510107  RH  040%=      5-min Rain = 0
KNH1 111644Z 29004KT 25/10 A3026 RMK A01 T02510104  RH  039%=      5-min Rain = 0
KNH1 111645Z 30002KT 25/11 A3026 RMK A01 T02510107  RH  040%=      5-min Rain = 0
KNH1 111646Z 29006KT 25/11 A3026 RMK A01 T02530109  RH  041%=      5-min Rain = 0
KNH1 111647Z 27006KT 25/11 A3026 RMK A01 T02540108  RH  040%=      5-min Rain = 0
KNH1 111648Z 29004KT 25/11 A3026 RMK A01 T02520107  RH  040%=      5-min Rain = 0
KNH1 111649Z 31003KT 25/11 A3026 RMK A01 T02480105  RH  040%=      5-min Rain = 0
KNH1 111650Z 31004KT 25/11 A3026 RMK A01 T02470108  RH  041%=      5-min Rain = 0
KNH1 111651Z 29003KT 25/11 A3026 RMK A01 T02480108  RH  041%=      5-min Rain = 0
KNH1 111652Z 26002KT 25/11 A3026 RMK A01 T02490107  RH  041%=      5-min Rain = 0
KNH1 111653Z 26001KT 25/10 A3026 RMK A01 T02500104  RH  040%=      5-min Rain = 0
KNH1 111654Z 23001KT 25/10 A3026 RMK A01 T02500103  RH  039%=      5-min Rain = 0
KNH1 111655Z 24004KT 25/11 A3026 RMK A01 T02510106  RH  040%=      5-min Rain = 0
KNH1 111656Z 26003KT 25/11 A3025 RMK A01 T02510107  RH  040%=      5-min Rain = 0
KNH1 111657Z 27003KT 25/11 A3025 RMK A01 T02520110  RH  041%=      5-min Rain = 0
KNH1 111658Z 25001KT 25/11 A3025 RMK A01 T02540108  RH  040%=      5-min Rain = 0
KNH1 111659Z 14001KT 25/11 A3025 RMK A01 T02540106  RH  039%=      5-min Rain = 0
KNH1 111700Z 29001KT 25/11 A3025 RMK A01 T02540108  RH  040%=      5-min Rain = 0
KNH1 111701Z 27003KT 26/11 A3025 RMK A01 T02550108  RH  040%=      5-min Rain = 0
KNH1 111702Z 29003KT 26/11 A3025 RMK A01 T02550109  RH  040%=      5-min Rain = 0
KNH1 111703Z 30004KT 26/11 A3025 RMK A01 T02550107  RH  040%=      5-min Rain = 0
KNH1 111704Z 31004KT 26/11 A3025 RMK A01 T02550108  RH  040%=      5-min Rain = 0
KNH1 111705Z 32003KT 26/11 A3025 RMK A01 T02550106  RH  039%=      5-min Rain = 0
KNH1 111706Z 34002KT 25/11 A3025 RMK A01 T02530107  RH  040%=      5-min Rain = 0
KNH1 111707Z 35002KT 25/11 A3025 RMK A01 T02540108  RH  040%=      5-min Rain = 0
KNH1 111708Z 33001KT 26/11 A3025 RMK A01 T02550110  RH  040%=      5-min Rain = 0
KNH1 111709Z 25001KT 26/11 A3025 RMK A01 T02580109  RH  039%=      5-min Rain = 0
KNH1 111710Z 23002KT 26/11 A3025 RMK A01 T02580111  RH  040%=      5-min Rain = 0
KNH1 111711Z 24004KT 26/11 A3025 RMK A01 T02590111  RH  040%=      5-min Rain = 0
KNH1 111712Z 25004KT 26/11 A3025 RMK A01 T02570111  RH  040%=      5-min Rain = 0
KNH1 111713Z 25004KT 26/11 A3025 RMK A01 T02550110  RH  040%=      5-min Rain = 0
KNH1 111714Z 22003KT 25/11 A3025 RMK A01 T02520109  RH  041%=      5-min Rain = 0
KNH1 111715Z 22002KT 25/11 A3025 RMK A01 T02510110  RH  041%=      5-min Rain = 0
KNH1 111716Z 27000KT 25/11 A3025 RMK A01 T02520110  RH  041%=      5-min Rain = 0
KNH1 111717Z 32002KT 25/11 A3025 RMK A01 T02540113  RH  041%=      5-min Rain = 0
KNH1 111718Z 28005KT 26/12 A3025 RMK A01 T02590116  RH  041%=      5-min Rain = 0
KNH1 111719Z 29007KT 26/11 A3025 RMK A01 T02620114  RH  039%=      5-min Rain = 0
KNH1 111720Z 29007KT 26/11 A3025 RMK A01 T02640113  RH  039%=      5-min Rain = 0
KNH1 111721Z 29005KT 26/11 A3025 RMK A01 T02630111  RH  039%=      5-min Rain = 0
KNH1 111722Z 30004KT 26/11 A3025 RMK A01 T02600111  RH  039%=      5-min Rain = 0
KNH1 111723Z 33003KT 26/11 A3025 RMK A01 T02590110  RH  039%=      5-min Rain = 0
KNH1 111724Z 32004KT 26/11 A3025 RMK A01 T02570112  RH  040%=      5-min Rain = 0
KNH1 111725Z 31004KT 26/11 A3025 RMK A01 T02590109  RH  039%=      5-min Rain = 0
KNH1 111726Z 33004KT 26/11 A3025 RMK A01 T02610107  RH  038%=      5-min Rain = 0
KNH1 111727Z 35004KT 26/11 A3025 RMK A01 T02590110  RH  039%=      5-min Rain = 0
KNH1 111728Z 33003KT 26/11 A3025 RMK A01 T02600108  RH  039%=      5-min Rain = 0
KNH1 111729Z 34002KT 26/11 A3025 RMK A01 T02610108  RH  038%=      5-min Rain = 0
KNH1 111730Z 36003KT 26/11 A3025 RMK A01 T02610109  RH  039%=      5-min Rain = 0
KNH1 111731Z 35001KT 26/11 A3025 RMK A01 T02630108  RH  038%=      5-min Rain = 0
KNH1 111732Z 28000KT 26/11 A3025 RMK A01 T02640109  RH  038%=      5-min Rain = 0
KNH1 111733Z 22001KT 27/11 A3025 RMK A01 T02660111  RH  038%=      5-min Rain = 0
KNH1 111734Z 18002KT 27/11 A3025 RMK A01 T02670110  RH  037%=      5-min Rain = 0
KNH1 111735Z 21003KT 27/11 A3025 RMK A01 T02670111  RH  038%=      5-min Rain = 0
KNH1 111736Z 24001KT 27/11 A3025 RMK A01 T02690114  RH  038%=      5-min Rain = 0
KNH1 111737Z 23003KT 27/11 A3025 RMK A01 T02700111  RH  037%=      5-min Rain = 0
KNH1 111738Z 23002KT 27/11 A3025 RMK A01 T02680107  RH  036%=      5-min Rain = 0
KNH1 111739Z 21002KT 27/11 A3025 RMK A01 T02650107  RH  037%=      5-min Rain = 0
KNH1 111740Z 18001KT 27/11 A3025 RMK A01 T02660107  RH  037%=      5-min Rain = 0
KNH1 111741Z 04002KT 27/11 A3024 RMK A01 T02680107  RH  037%=      5-min Rain = 0
KNH1 111742Z 06003KT 27/11 A3024 RMK A01 T02690107  RH  036%=      5-min Rain = 0
KNH1 111743Z 05004KT 27/11 A3024 RMK A01 T02690108  RH  036%=      5-min Rain = 0
KNH1 111744Z 05003KT 27/11 A3024 RMK A01 T02700108  RH  036%=      5-min Rain = 0
KNH1 111745Z 05001KT 27/11 A3024 RMK A01 T02710109  RH  036%=      5-min Rain = 0
KNH1 111746Z 34003KT 27/11 A3024 RMK A01 T02730111  RH  036%=      5-min Rain = 0
KNH1 111747Z 29003KT 27/11 A3024 RMK A01 T02740109  RH  036%=      5-min Rain = 0
KNH1 111748Z 28004KT 27/11 A3024 RMK A01 T02730110  RH  036%=      5-min Rain = 0
KNH1 111749Z 29002KT 27/11 A3024 RMK A01 T02710113  RH  037%=      5-min Rain = 0
KNH1 111750Z 30005KT 27/11 A3024 RMK A01 T02720111  RH  037%=      5-min Rain = 0
KNH1 111751Z 29005KT 27/11 A3024 RMK A01 T02730112  RH  036%=      5-min Rain = 0
KNH1 111752Z 29006KT 27/11 A3024 RMK A01 T02740110  RH  036%=      5-min Rain = 0
KNH1 111753Z 28006KT 27/11 A3024 RMK A01 T02720111  RH  036%=      5-min Rain = 0
KNH1 111754Z 29005KT 27/11 A3024 RMK A01 T02700109  RH  036%=      5-min Rain = 0
KNH1 111755Z 29005KT 27/11 A3024 RMK A01 T02690109  RH  037%=      5-min Rain = 0
KNH1 111756Z 31004KT 27/11 A3024 RMK A01 T02680108  RH  037%=      5-min Rain = 0
KNH1 111757Z 28001KT 27/11 A3024 RMK A01 T02660107  RH  037%=      5-min Rain = 0
KNH1 111758Z 28001KT 27/11 A3024 RMK A01 T02650107  RH  037%=      5-min Rain = 0
KNH1 111759Z 34001KT 27/11 A3024 RMK A01 T02650108  RH  037%=      5-min Rain = 0
KNH1 111800Z 09001KT 27/11 A3024 RMK A01 T02670108  RH  037%=      5-min Rain = 0
KNH1 111801Z 11003KT 27/11 A3024 RMK A01 T02700113  RH  038%=      5-min Rain = 0
KNH1 111802Z 12003KT 28/11 A3024 RMK A01 T02750112  RH  036%=      5-min Rain = 0
KNH1 111803Z 13003KT 28/11 A3024 RMK A01 T02780110  RH  035%=      5-min Rain = 0
KNH1 111804Z 09004KT 28/11 A3024 RMK A01 T02790112  RH  035%=      5-min Rain = 0
KNH1 111805Z 07003KT 28/11 A3023 RMK A01 T02770109  RH  035%=      5-min Rain = 0
KNH1 111806Z 09001KT 27/11 A3023 RMK A01 T02740109  RH  036%=      5-min Rain = 0
KNH1 111807Z 04002KT 27/11 A3023 RMK A01 T02730111  RH  036%=      5-min Rain = 0
KNH1 111808Z 03003KT 27/11 A3023 RMK A01 T02740111  RH  036%=      5-min Rain = 0
KNH1 111809Z 02002KT 28/11 A3023 RMK A01 T02750113  RH  036%=      5-min Rain = 0
KNH1 111810Z 05001KT 28/11 A3023 RMK A01 T02780112  RH  036%=      5-min Rain = 0
KNH1 111811Z 35003KT 28/11 A3023 RMK A01 T02790110  RH  035%=      5-min Rain = 0
KNH1 111812Z 26002KT 28/11 A3023 RMK A01 T02780111  RH  035%=      5-min Rain = 0
KNH1 111813Z 30003KT 28/11 A3023 RMK A01 T02780109  RH  035%=      5-min Rain = 0
KNH1 111814Z 33005KT 28/11 A3023 RMK A01 T02770106  RH  034%=      5-min Rain = 0
KNH1 111815Z 35006KT 28/11 A3023 RMK A01 T02760105  RH  034%=      5-min Rain = 0
KNH1 111816Z 35006KT 28/11 A3023 RMK A01 T02760107  RH  035%=      5-min Rain = 0
KNH1 111817Z 01005KT 28/11 A3023 RMK A01 T02780105  RH  034%=      5-min Rain = 0
KNH1 111818Z 01003KT 28/10 A3023 RMK A01 T02770104  RH  034%=      5-min Rain = 0
KNH1 111819Z 01002KT 28/10 A3023 RMK A01 T02750104  RH  034%=      5-min Rain = 0
KNH1 111820Z 31005KT 28/11 A3023 RMK A01 T02750105  RH  034%=      5-min Rain = 0
KNH1 111821Z 31004KT 28/10 A3023 RMK A01 T02760104  RH  034%=      5-min Rain = 0
KNH1 111822Z 34005KT 27/11 A3023 RMK A01 T02740105  RH  035%=      5-min Rain = 0
KNH1 111823Z 34008KT 28/11 A3023 RMK A01 T02750106  RH  035%=      5-min Rain = 0
KNH1 111824Z 34006KT 28/10 A3023 RMK A01 T02800103  RH  033%=      5-min Rain = 0
KNH1 111825Z 35005KT 28/11 A3023 RMK A01 T02800106  RH  034%=      5-min Rain = 0
KNH1 111826Z 33004KT 28/10 A3023 RMK A01 T02810104  RH  033%=      5-min Rain = 0
KNH1 111827Z 28004KT 28/10 A3023 RMK A01 T02820104  RH  033%=      5-min Rain = 0
KNH1 111828Z 29002KT 28/10 A3023 RMK A01 T02790104  RH  033%=      5-min Rain = 0
KNH1 111829Z 30004KT 28/10 A3022 RMK A01 T02770102  RH  033%=      5-min Rain = 0
KNH1 111830Z 34004KT 28/11 A3022 RMK A01 T02760106  RH  034%=      5-min Rain = 0
KNH1 111831Z 31005KT 28/11 A3022 RMK A01 T02780106  RH  034%=      5-min Rain = 0
KNH1 111832Z 31003KT 28/11 A3022 RMK A01 T02770106  RH  034%=      5-min Rain = 0
KNH1 111833Z 31004KT 28/11 A3022 RMK A01 T02760105  RH  034%=      5-min Rain = 0
KNH1 111834Z 34006KT 28/11 A3022 RMK A01 T02770110  RH  035%=      5-min Rain = 0
KNH1 111835Z 34003KT 28/11 A3022 RMK A01 T02790108  RH  034%=      5-min Rain = 0
KNH1 111836Z 34005KT 28/11 A3022 RMK A01 T02790108  RH  034%=      5-min Rain = 0
KNH1 111837Z 32003KT 28/11 A3022 RMK A01 T02790108  RH  034%=      5-min Rain = 0
KNH1 111838Z 27002KT 28/11 A3022 RMK A01 T02780107  RH  034%=      5-min Rain = 0
KNH1 111839Z 36004KT 28/11 A3022 RMK A01 T02770109  RH  035%=      5-min Rain = 0
KNH1 111840Z 36005KT 28/11 A3022 RMK A01 T02780110  RH  035%=      5-min Rain = 0
KNH1 111841Z 33004KT 28/11 A3022 RMK A01 T02800111  RH  035%=      5-min Rain = 0
KNH1 111842Z 34002KT 28/11 A3022 RMK A01 T02810110  RH  034%=      5-min Rain = 0
KNH1 111843Z 32003KT 28/11 A3022 RMK A01 T02810110  RH  035%=      5-min Rain = 0
KNH1 111844Z 33002KT 28/11 A3022 RMK A01 T02810112  RH  035%=      5-min Rain = 0
KNH1 111845Z 33003KT 28/11 A3022 RMK A01 T02830113  RH  035%=      5-min Rain = 0
KNH1 111846Z 01003KT 29/11 A3022 RMK A01 T02850109  RH  033%=      5-min Rain = 0
KNH1 111847Z 30002KT 29/11 A3022 RMK A01 T02850107  RH  033%=      5-min Rain = 0
KNH1 111848Z 32002KT 28/11 A3022 RMK A01 T02840108  RH  034%=      5-min Rain = 0
KNH1 111849Z 00003KT 28/11 A3022 RMK A01 T02830111  RH  034%=      5-min Rain = 0
KNH1 111850Z 09001KT 28/11 A3022 RMK A01 T02820111  RH  034%=      5-min Rain = 0
KNH1 111851Z 02004KT 28/11 A3022 RMK A01 T02820109  RH  034%=      5-min Rain = 0
KNH1 111852Z 03004KT 28/11 A3022 RMK A01 T02820109  RH  034%=      5-min Rain = 0
KNH1 111853Z 02001KT 28/11 A3022 RMK A01 T02810106  RH  033%=      5-min Rain = 0
KNH1 111854Z 36000KT 28/11 A3022 RMK A01 T02800107  RH  034%=      5-min Rain = 0
KNH1 111855Z 18001KT 28/11 A3022 RMK A01 T02820105  RH  033%=      5-min Rain = 0
KNH1 111856Z 16001KT 28/11 A3021 RMK A01 T02800105  RH  034%=      5-min Rain = 0
KNH1 111857Z 12001KT 28/11 A3021 RMK A01 T02800106  RH  034%=      5-min Rain = 0
KNH1 111858Z 11004KT 28/11 A3021 RMK A01 T02820107  RH  034%=      5-min Rain = 0
KNH1 111859Z 14004KT 28/11 A3021 RMK A01 T02830107  RH  033%=      5-min Rain = 0
KNH1 111900Z 18005KT 28/11 A3021 RMK A01 T02840110  RH  034%=      5-min Rain = 0
KNH1 111901Z 15002KT 28/11 A3021 RMK A01 T02840110  RH  034%=      5-min Rain = 0
KNH1 111902Z 13003KT 29/11 A3021 RMK A01 T02850107  RH  033%=      5-min Rain = 0
KNH1 111903Z 16003KT 29/11 A3021 RMK A01 T02870109  RH  033%=      5-min Rain = 0
KNH1 111904Z 15004KT 29/11 A3021 RMK A01 T02870107  RH  033%=      5-min Rain = 0
KNH1 111905Z 10006KT 29/11 A3021 RMK A01 T02870111  RH  034%=      5-min Rain = 0
KNH1 111906Z 09007KT 29/11 A3021 RMK A01 T02880109  RH  033%=      5-min Rain = 0
KNH1 111907Z 06004KT 29/11 A3021 RMK A01 T02850108  RH  033%=      5-min Rain = 0
KNH1 111908Z 13003KT 28/11 A3021 RMK A01 T02820112  RH  035%=      5-min Rain = 0
KNH1 111909Z 12004KT 28/11 A3021 RMK A01 T02840113  RH  034%=      5-min Rain = 0
KNH1 111910Z 13004KT 29/11 A3021 RMK A01 T02870111  RH  034%=      5-min Rain = 0
KNH1 111911Z 13005KT 29/11 A3021 RMK A01 T02870110  RH  033%=      5-min Rain = 0
KNH1 111912Z 11003KT 29/11 A3021 RMK A01 T02870111  RH  033%=      5-min Rain = 0
KNH1 111913Z 13003KT 29/11 A3021 RMK A01 T02890112  RH  033%=      5-min Rain = 0
KNH1 111914Z 10001KT 29/11 A3021 RMK A01 T02900111  RH  033%=      5-min Rain = 0
KNH1 111915Z 03001KT 29/11 A3021 RMK A01 T02900111  RH  033%=      5-min Rain = 0
KNH1 111916Z 03002KT 29/11 A3021 RMK A01 T02910112  RH  033%=      5-min Rain = 0
KNH1 111917Z 35004KT 29/11 A3021 RMK A01 T02920112  RH  033%=      5-min Rain = 0
KNH1 111918Z 33005KT 29/11 A3021 RMK A01 T02900110  RH  033%=      5-min Rain = 0
KNH1 111919Z 33003KT 29/11 A302 RMK A01 T02880109  RH  033%=      5-min Rain = 0
KNH1 111920Z 29001KT 29/11 A302 RMK A01 T02860110  RH  034%=      5-min Rain = 0
KNH1 111921Z 28003KT 29/11 A302 RMK A01 T02850109  RH  033%=      5-min Rain = 0
KNH1 111922Z 33003KT 29/11 A302 RMK A01 T02850108  RH  033%=      5-min Rain = 0
KNH1 111923Z 01007KT 29/11 A302 RMK A01 T02860111  RH  034%=      5-min Rain = 0
KNH1 111924Z 03005KT 29/11 A302 RMK A01 T02870109  RH  033%=      5-min Rain = 0
KNH1 111925Z 03004KT 28/11 A302 RMK A01 T02840109  RH  034%=      5-min Rain = 0
KNH1 111926Z 31003KT 28/11 A302 RMK A01 T02840113  RH  034%=      5-min Rain = 0
KNH1 111927Z 29003KT 29/11 A302 RMK A01 T02890110  RH  033%=      5-min Rain = 0
KNH1 111928Z 30003KT 29/11 A302 RMK A01 T02880106  RH  032%=      5-min Rain = 0
KNH1 111929Z 29003KT 29/11 A302 RMK A01 T02850106  RH  033%=      5-min Rain = 0
KNH1 111930Z 29003KT 28/11 A302 RMK A01 T02830108  RH  034%=      5-min Rain = 0
KNH1 111931Z 29003KT 28/11 A302 RMK A01 T02830109  RH  034%=      5-min Rain = 0
KNH1 111932Z 25002KT 28/11 A302 RMK A01 T02840108  RH  034%=      5-min Rain = 0
KNH1 111933Z 28003KT 29/11 A302 RMK A01 T02850110  RH  034%=      5-min Rain = 0
KNH1 111934Z 29004KT 29/11 A302 RMK A01 T02870110  RH  033%=      5-min Rain = 0
KNH1 111935Z 26004KT 29/11 A302 RMK A01 T02890111  RH  033%=      5-min Rain = 0
KNH1 111936Z 27003KT 29/11 A3019 RMK A01 T02900110  RH  033%=      5-min Rain = 0
KNH1 111937Z 31003KT 29/11 A302 RMK A01 T02900110  RH  033%=      5-min Rain = 0
KNH1 111938Z 06005KT 29/11 A302 RMK A01 T02920107  RH  032%=      5-min Rain = 0
KNH1 111939Z 06004KT 30/10 A3019 RMK A01 T02950100  RH  030%=      5-min Rain = 0
KNH1 111940Z 36003KT 29/11 A3019 RMK A01 T02940106  RH  031%=      5-min Rain = 0
KNH1 111941Z 33005KT 30/10 A3019 RMK A01 T02950103  RH  031%=      5-min Rain = 0
KNH1 111942Z 35003KT 30/10 A3019 RMK A01 T02950102  RH  030%=      5-min Rain = 0
KNH1 111943Z 34003KT 30/10 A3019 RMK A01 T02950100  RH  030%=      5-min Rain = 0
KNH1 111944Z 35004KT 30/10 A3019 RMK A01 T02970104  RH  030%=      5-min Rain = 0
KNH1 111945Z 02006KT 30/11 A3019 RMK A01 T03000105  RH  030%=      5-min Rain = 0
KNH1 111946Z 02007KT 30/10 A3019 RMK A01 T03000104  RH  030%=      5-min Rain = 0
KNH1 111947Z 01004KT 30/10 A3019 RMK A01 T02960103  RH  030%=      5-min Rain = 0
KNH1 111948Z 04004KT 29/11 A3019 RMK A01 T02930106  RH  031%=      5-min Rain = 0
KNH1 111949Z 05007KT 29/10 A3019 RMK A01 T02940104  RH  031%=      5-min Rain = 0
KNH1 111950Z 04007KT 30/10 A3019 RMK A01 T02960101  RH  030%=      5-min Rain = 0
KNH1 111951Z 05006KT 30/10 A3019 RMK A01 T02960101  RH  030%=      5-min Rain = 0
KNH1 111952Z 07007KT 30/10 A3019 RMK A01 T02950104  RH  030%=      5-min Rain = 0
KNH1 111953Z 05003KT 30/10 A3019 RMK A01 T02960103  RH  030%=      5-min Rain = 0
KNH1 111954Z 10004KT 29/10 A3019 RMK A01 T02940104  RH  031%=      5-min Rain = 0
KNH1 111955Z 13004KT 29/10 A3019 RMK A01 T02940104  RH  031%=      5-min Rain = 0
KNH1 111956Z 14006KT 30/10 A3019 RMK A01 T02960102  RH  030%=      5-min Rain = 0
KNH1 111957Z 12004KT 30/10 A3019 RMK A01 T02970101  RH  030%=      5-min Rain = 0
KNH1 111958Z 14003KT 30/10 A3019 RMK A01 T02960102  RH  030%=      5-min Rain = 0
KNH1 111959Z 10001KT 30/10 A3019 RMK A01 T02960101  RH  030%=      5-min Rain = 0
KNH1 112000Z 06002KT 30/10 A3019 RMK A01 T02970104  RH  030%=      5-min Rain = 0
KNH1 112001Z 04004KT 30/11 A3019 RMK A01 T03000105  RH  030%=      5-min Rain = 0
KNH1 112002Z 02007KT 30/11 A3019 RMK A01 T02990105  RH  030%=      5-min Rain = 0
KNH1 112003Z 00005KT 30/10 A3018 RMK A01 T02990104  RH  030%=      5-min Rain = 0
KNH1 112004Z 00005KT 30/11 A3018 RMK A01 T02980105  RH  030%=      5-min Rain = 0
KNH1 112005Z 01006KT 30/10 A3018 RMK A01 T02990102  RH  029%=      5-min Rain = 0
KNH1 112006Z 02003KT 30/10 A3018 RMK A01 T02980101  RH  029%=      5-min Rain = 0
KNH1 112007Z 02002KT 30/10 A3018 RMK A01 T02960102  RH  030%=      5-min Rain = 0
KNH1 112008Z 35003KT 30/10 A3018 RMK A01 T02960104  RH  030%=      5-min Rain = 0
KNH1 112009Z 01006KT 30/11 A3018 RMK A01 T02950105  RH  031%=      5-min Rain = 0
KNH1 112010Z 03004KT 30/11 A3018 RMK A01 T02960106  RH  031%=      5-min Rain = 0
KNH1 112011Z 36003KT 30/11 A3018 RMK A01 T02970105  RH  031%=      5-min Rain = 0
KNH1 112012Z 00005KT 30/11 A3018 RMK A01 T02980105  RH  030%=      5-min Rain = 0
KNH1 112013Z 01004KT 30/11 A3018 RMK A01 T02970105  RH  031%=      5-min Rain = 0
KNH1 112014Z 34003KT 30/11 A3018 RMK A01 T02950106  RH  031%=      5-min Rain = 0
KNH1 112015Z 34003KT 30/10 A3018 RMK A01 T02960104  RH  030%=      5-min Rain = 0
KNH1 112016Z 35004KT 30/11 A3018 RMK A01 T02970105  RH  030%=      5-min Rain = 0
KNH1 112017Z 33004KT 30/11 A3018 RMK A01 T02980106  RH  030%=      5-min Rain = 0
KNH1 112018Z 31002KT 30/11 A3018 RMK A01 T02980105  RH  030%=      5-min Rain = 0
KNH1 112019Z 32003KT 30/10 A3018 RMK A01 T02970104  RH  030%=      5-min Rain = 0
KNH1 112020Z 29002KT 30/11 A3018 RMK A01 T02950107  RH  031%=      5-min Rain = 0
KNH1 112021Z 03003KT 30/11 A3017 RMK A01 T02950106  RH  031%=      5-min Rain = 0
KNH1 112022Z 01003KT 30/11 A3017 RMK A01 T02960106  RH  031%=      5-min Rain = 0
KNH1 112023Z 04003KT 30/11 A3017 RMK A01 T02980106  RH  030%=      5-min Rain = 0
KNH1 112024Z 07003KT 30/11 A3017 RMK A01 T03010106  RH  030%=      5-min Rain = 0
KNH1 112025Z 11004KT 30/11 A3017 RMK A01 T03010107  RH  030%=      5-min Rain = 0
KNH1 112026Z 13003KT 30/11 A3017 RMK A01 T03020106  RH  030%=      5-min Rain = 0
KNH1 112027Z 07002KT 30/10 A3017 RMK A01 T03010104  RH  029%=      5-min Rain = 0
KNH1 112028Z 05002KT 30/11 A3017 RMK A01 T03010106  RH  030%=      5-min Rain = 0
KNH1 112029Z 06005KT 30/11 A3017 RMK A01 T03030107  RH  030%=      5-min Rain = 0
KNH1 112030Z 05004KT 30/11 A3017 RMK A01 T03030105  RH  029%=      5-min Rain = 0
KNH1 112031Z 09006KT 30/11 A3017 RMK A01 T03020106  RH  030%=      5-min Rain = 0
KNH1 112032Z 08005KT 30/10 A3017 RMK A01 T03020103  RH  029%=      5-min Rain = 0
KNH1 112033Z 06007KT 30/11 A3017 RMK A01 T02990106  RH  030%=      5-min Rain = 0
KNH1 112034Z 06006KT 30/11 A3017 RMK A01 T02990105  RH  030%=      5-min Rain = 0
KNH1 112035Z 07006KT 30/11 A3017 RMK A01 T03000105  RH  030%=      5-min Rain = 0
KNH1 112036Z 06005KT 30/11 A3017 RMK A01 T02980106  RH  030%=      5-min Rain = 0
KNH1 112037Z 04006KT 30/11 A3017 RMK A01 T03000108  RH  030%=      5-min Rain = 0
KNH1 112038Z 05005KT 30/11 A3017 RMK A01 T03040109  RH  030%=      5-min Rain = 0
KNH1 112039Z 04008KT 31/11 A3017 RMK A01 T03070107  RH  029%=      5-min Rain = 0
KNH1 112040Z 03007KT 31/11 A3017 RMK A01 T03060105  RH  029%=      5-min Rain = 0
KNH1 112041Z 02005KT 30/10 A3017 RMK A01 T03020103  RH  029%=      5-min Rain = 0
KNH1 112042Z 00004KT 30/10 A3017 RMK A01 T02990104  RH  030%=      5-min Rain = 0
KNH1 112043Z 05007KT 30/11 A3017 RMK A01 T03000105  RH  030%=      5-min Rain = 0
KNH1 112044Z 05007KT 30/10 A3017 RMK A01 T03010104  RH  029%=      5-min Rain = 0
KNH1 112045Z 04003KT 30/10 A3017 RMK A01 T03010103  RH  029%=      5-min Rain = 0
KNH1 112046Z 04006KT 30/11 A3017 RMK A01 T03010105  RH  030%=      5-min Rain = 0
KNH1 112047Z 06006KT 30/11 A3017 RMK A01 T03030105  RH  029%=      5-min Rain = 0
KNH1 112048Z 05004KT 30/10 A3017 RMK A01 T03040103  RH  029%=      5-min Rain = 0
KNH1 112049Z 04004KT 30/10 A3017 RMK A01 T03030104  RH  029%=      5-min Rain = 0
KNH1 112050Z 01002KT 30/10 A3017 RMK A01 T03020104  RH  029%=      5-min Rain = 0
KNH1 112051Z 05003KT 30/10 A3016 RMK A01 T03030103  RH  029%=      5-min Rain = 0
KNH1 112052Z 08003KT 30/10 A3016 RMK A01 T03010101  RH  029%=      5-min Rain = 0
KNH1 112053Z 09007KT 30/10 A3016 RMK A01 T03000103  RH  029%=      5-min Rain = 0
KNH1 112054Z 11006KT 30/10 A3016 RMK A01 T02980103  RH  030%=      5-min Rain = 0
KNH1 112055Z 12004KT 30/11 A3016 RMK A01 T02970105  RH  030%=      5-min Rain = 0
KNH1 112056Z 13003KT 30/11 A3016 RMK A01 T02990105  RH  030%=      5-min Rain = 0
KNH1 112057Z 11002KT 30/10 A3016 RMK A01 T03020103  RH  029%=      5-min Rain = 0
KNH1 112058Z 15002KT 30/10 A3016 RMK A01 T03020101  RH  029%=      5-min Rain = 0
KNH1 112059Z 16002KT 30/10 A3016 RMK A01 T03020100  RH  029%=      5-min Rain = 0
KNH1 112100Z 17003KT 30/10 A3016 RMK A01 T03010100  RH  029%=      5-min Rain = 0
KNH1 112101Z 15004KT 30/10 A3016 RMK A01 T03010102  RH  029%=      5-min Rain = 0
KNH1 112102Z 14002KT 30/10 A3016 RMK A01 T03020099  RH  028%=      5-min Rain = 0
KNH1 112103Z 14001KT 30/10 A3016 RMK A01 T03000099  RH  029%=      5-min Rain = 0
KNH1 112104Z 02002KT 30/10 A3016 RMK A01 T03000101  RH  029%=      5-min Rain = 0
KNH1 112105Z 04003KT 30/10 A3016 RMK A01 T03030103  RH  029%=      5-min Rain = 0
KNH1 112106Z 04005KT 30/10 A3016 RMK A01 T03040101  RH  028%=      5-min Rain = 0
KNH1 112107Z 03005KT 31/10 A3016 RMK A01 T03050101  RH  028%=      5-min Rain = 0
KNH1 112108Z 03007KT 31/10 A3016 RMK A01 T03050100  RH  028%=      5-min Rain = 0
KNH1 112109Z 05006KT 30/10 A3016 RMK A01 T03030099  RH  028%=      5-min Rain = 0
KNH1 112110Z 07005KT 30/10 A3016 RMK A01 T03020100  RH  029%=      5-min Rain = 0
KNH1 112111Z 07005KT 30/10 A3016 RMK A01 T03030100  RH  029%=      5-min Rain = 0
KNH1 112112Z 09003KT 30/10 A3016 RMK A01 T03030099  RH  028%=      5-min Rain = 0
KNH1 112113Z 02004KT 30/10 A3016 RMK A01 T03020100  RH  029%=      5-min Rain = 0
KNH1 112114Z 04005KT 30/10 A3016 RMK A01 T03010098  RH  028%=      5-min Rain = 0
KNH1 112115Z 03004KT 30/10 A3016 RMK A01 T03010097  RH  028%=      5-min Rain = 0
KNH1 112116Z 02003KT 30/10 A3016 RMK A01 T02990096  RH  028%=      5-min Rain = 0
KNH1 112117Z 05002KT 30/10 A3016 RMK A01 T02980096  RH  029%=      5-min Rain = 0
KNH1 112118Z 10003KT 30/10 A3015 RMK A01 T02970102  RH  030%=      5-min Rain = 0
KNH1 112119Z 10004KT 30/11 A3015 RMK A01 T02990110  RH  031%=      5-min Rain = 0
KNH1 112120Z 09004KT 30/11 A3015 RMK A01 T03030110  RH  030%=      5-min Rain = 0
KNH1 112121Z 09006KT 31/11 A3015 RMK A01 T03050107  RH  029%=      5-min Rain = 0
KNH1 112122Z 09006KT 30/11 A3015 RMK A01 T03040107  RH  030%=      5-min Rain = 0
KNH1 112123Z 10003KT 30/10 A3015 RMK A01 T03040104  RH  029%=      5-min Rain = 0
KNH1 112124Z 12003KT 30/11 A3015 RMK A01 T03020108  RH  030%=      5-min Rain = 0
KNH1 112125Z 11004KT 30/11 A3015 RMK A01 T03040108  RH  030%=      5-min Rain = 0
KNH1 112126Z 12004KT 30/11 A3015 RMK A01 T03040107  RH  029%=      5-min Rain = 0
KNH1 112127Z 13005KT 31/11 A3015 RMK A01 T03050108  RH  030%=      5-min Rain = 0
KNH1 112128Z 14006KT 31/11 A3015 RMK A01 T03060108  RH  030%=      5-min Rain = 0
KNH1 112129Z 12007KT 31/11 A3015 RMK A01 T03060108  RH  029%=      5-min Rain = 0
KNH1 112130Z 12003KT 31/11 A3015 RMK A01 T03070108  RH  029%=      5-min Rain = 0
KNH1 112131Z 09004KT 31/11 A3015 RMK A01 T03070108  RH  029%=      5-min Rain = 0
KNH1 112132Z 06005KT 31/10 A3015 RMK A01 T03070104  RH  029%=      5-min Rain = 0
KNH1 112133Z 04006KT 31/10 A3015 RMK A01 T03060103  RH  029%=      5-min Rain = 0
KNH1 112134Z 04005KT 30/10 A3015 RMK A01 T03040100  RH  028%=      5-min Rain = 0
KNH1 112135Z 05003KT 30/10 A3015 RMK A01 T03010100  RH  029%=      5-min Rain = 0
KNH1 112136Z 05004KT 30/10 A3015 RMK A01 T02990101  RH  029%=      5-min Rain = 0
KNH1 112137Z 06005KT 30/10 A3015 RMK A01 T02990102  RH  029%=      5-min Rain = 0
KNH1 112138Z 06005KT 30/10 A3015 RMK A01 T03030102  RH  029%=      5-min Rain = 0
KNH1 112139Z 07005KT 30/10 A3015 RMK A01 T03030100  RH  028%=      5-min Rain = 0
KNH1 112140Z 06004KT 30/10 A3015 RMK A01 T03010101  RH  029%=      5-min Rain = 0
KNH1 112141Z 05003KT 30/10 A3014 RMK A01 T02990101  RH  029%=      5-min Rain = 0
KNH1 112142Z 04002KT 30/10 A3014 RMK A01 T02990101  RH  029%=      5-min Rain = 0
KNH1 112143Z 15001KT 30/10 A3014 RMK A01 T02990103  RH  030%=      5-min Rain = 0
KNH1 112144Z 13002KT 30/10 A3014 RMK A01 T02990102  RH  029%=      5-min Rain = 0
KNH1 112145Z 06003KT 30/10 A3014 RMK A01 T03000102  RH  029%=      5-min Rain = 0
KNH1 112146Z 03003G8KT 30/10 A3014 RMK A01 T03010103  RH  029%=      5-min Rain = 0
KNH1 112147Z 08005KT 30/11 A3014 RMK A01 T03020105  RH  029%=      5-min Rain = 0
KNH1 112148Z 05004KT 30/11 A3014 RMK A01 T03020105  RH  030%=      5-min Rain = 0
KNH1 112149Z 05006KT 30/10 A3014 RMK A01 T03030102  RH  029%=      5-min Rain = 0
KNH1 112150Z 06005KT 30/10 A3014 RMK A01 T03030102  RH  029%=      5-min Rain = 0
KNH1 112151Z 07005KT 30/10 A3014 RMK A01 T03030101  RH  029%=      5-min Rain = 0
KNH1 112152Z 06004KT 30/10 A3014 RMK A01 T03020101  RH  029%=      5-min Rain = 0
KNH1 112153Z 06006KT 30/10 A3014 RMK A01 T03000101  RH  029%=      5-min Rain = 0
KNH1 112154Z 07005KT 30/10 A3014 RMK A01 T02990102  RH  029%=      5-min Rain = 0
KNH1 112155Z 08002KT 30/10 A3014 RMK A01 T02990102  RH  029%=      5-min Rain = 0
KNH1 112156Z 02001KT 30/10 A3014 RMK A01 T02980101  RH  029%=      5-min Rain = 0
KNH1 112157Z 29001KT 30/10 A3014 RMK A01 T02980101  RH  029%=      5-min Rain = 0
KNH1 112158Z 27001KT 30/10 A3014 RMK A01 T02980103  RH  030%=      5-min Rain = 0
KNH1 112159Z 04002KT 30/10 A3014 RMK A01 T03000103  RH  030%=      5-min Rain = 0
KNH1 112200Z 04005KT 30/10 A3014 RMK A01 T03010104  RH  030%=      5-min Rain = 0
KNH1 112201Z 06005KT 30/11 A3014 RMK A01 T03010105  RH  030%=      5-min Rain = 0
KNH1 112202Z 07006KT 30/10 A3014 RMK A01 T03020104  RH  029%=      5-min Rain = 0
KNH1 112203Z 06007KT 30/10 A3014 RMK A01 T03010103  RH  029%=      5-min Rain = 0
KNH1 112204Z 06006KT 30/10 A3014 RMK A01 T03000104  RH  030%=      5-min Rain = 0
KNH1 112205Z 05005KT 30/10 A3014 RMK A01 T03000104  RH  030%=      5-min Rain = 0
KNH1 112206Z 05006KT 30/10 A3014 RMK A01 T03000102  RH  029%=      5-min Rain = 0
KNH1 112207Z 04005KT 30/10 A3014 RMK A01 T03000102  RH  029%=      5-min Rain = 0
KNH1 112208Z 06003KT 30/10 A3014 RMK A01 T02980102  RH  030%=      5-min Rain = 0
KNH1 112209Z 06004KT 30/10 A3014 RMK A01 T02980102  RH  030%=      5-min Rain = 0
KNH1 112210Z 07002KT 30/10 A3014 RMK A01 T02980102  RH  030%=      5-min Rain = 0
KNH1 112211Z 07003KT 30/10 A3014 RMK A01 T02980101  RH  029%=      5-min Rain = 0
KNH1 112212Z 09001KT 30/10 A3014 RMK A01 T02970099  RH  029%=      5-min Rain = 0
KNH1 112213Z 00000KT 30/10 A3014 RMK A01 T02980100  RH  029%=      5-min Rain = 0
KNH1 112214Z 09000KT 30/10 A3014 RMK A01 T03000103  RH  029%=      5-min Rain = 0
KNH1 112215Z 09003KT 30/10 A3014 RMK A01 T03030103  RH  029%=      5-min Rain = 0
KNH1 112216Z 05004KT 30/11 A3014 RMK A01 T03030106  RH  030%=      5-min Rain = 0
KNH1 112217Z 04004KT 30/11 A3014 RMK A01 T03030106  RH  030%=      5-min Rain = 0
KNH1 112218Z 03003KT 30/11 A3014 RMK A01 T03010106  RH  030%=      5-min Rain = 0
KNH1 112219Z 02003KT 30/11 A3014 RMK A01 T02980105  RH  030%=      5-min Rain = 0
KNH1 112220Z 01001KT 30/11 A3014 RMK A01 T02970105  RH  030%=      5-min Rain = 0
KNH1 112221Z 30001KT 30/11 A3013 RMK A01 T02960107  RH  031%=      5-min Rain = 0
KNH1 112222Z 07004KT 30/11 A3014 RMK A01 T02980107  RH  031%=      5-min Rain = 0
KNH1 112223Z 07006KT 30/10 A3013 RMK A01 T02980104  RH  030%=      5-min Rain = 0
KNH1 112224Z 05007KT 30/10 A3013 RMK A01 T02990103  RH  030%=      5-min Rain = 0
KNH1 112225Z 08004KT 30/11 A3013 RMK A01 T03000105  RH  030%=      5-min Rain = 0
KNH1 112226Z 11003KT 30/11 A3013 RMK A01 T03020106  RH  030%=      5-min Rain = 0
KNH1 112227Z 10002KT 30/10 A3013 RMK A01 T03030104  RH  029%=      5-min Rain = 0
KNH1 112228Z 10006KT 30/11 A3013 RMK A01 T03030105  RH  029%=      5-min Rain = 0
KNH1 112229Z 08008KT 30/11 A3013 RMK A01 T03030105  RH  029%=      5-min Rain = 0
KNH1 112230Z 06006KT 30/11 A3013 RMK A01 T03010105  RH  030%=      5-min Rain = 0
KNH1 112231Z 06006KT 30/11 A3013 RMK A01 T03010107  RH  030%=      5-min Rain = 0
KNH1 112232Z 06006KT 30/11 A3013 RMK A01 T03020108  RH  030%=      5-min Rain = 0
KNH1 112233Z 07007KT 30/11 A3013 RMK A01 T03030106  RH  030%=      5-min Rain = 0
KNH1 112234Z 07004KT 30/11 A3013 RMK A01 T03010106  RH  030%=      5-min Rain = 0
KNH1 112235Z 06006KT 30/11 A3013 RMK A01 T03000106  RH  030%=      5-min Rain = 0
KNH1 112236Z 06004KT 30/11 A3013 RMK A01 T03000105  RH  030%=      5-min Rain = 0
KNH1 112237Z 05002KT 30/11 A3013 RMK A01 T02990106  RH  030%=      5-min Rain = 0
KNH1 112238Z 02002KT 30/11 A3013 RMK A01 T02980106  RH  030%=      5-min Rain = 0
KNH1 112239Z 00003KT 30/11 A3013 RMK A01 T02990108  RH  031%=      5-min Rain = 0
KNH1 112240Z 03003KT 30/11 A3013 RMK A01 T03010109  RH  030%=      5-min Rain = 0
KNH1 112241Z 06004KT 30/11 A3013 RMK A01 T03030109  RH  030%=      5-min Rain = 0
KNH1 112242Z 08006KT 30/11 A3013 RMK A01 T03030108  RH  030%=      5-min Rain = 0
KNH1 112243Z 07007KT 30/11 A3014 RMK A01 T03040109  RH  030%=      5-min Rain = 0
KNH1 112244Z 07006KT 30/11 A3014 RMK A01 T03030106  RH  030%=      5-min Rain = 0
KNH1 112245Z 04007KT 30/11 A3014 RMK A01 T03020107  RH  030%=      5-min Rain = 0
KNH1 112246Z 01003KT 30/11 A3014 RMK A01 T03000106  RH  030%=      5-min Rain = 0
KNH1 112247Z 00003KT 30/11 A3014 RMK A01 T02980107  RH  030%=      5-min Rain = 0
KNH1 112248Z 06005KT 30/11 A3014 RMK A01 T02990107  RH  031%=      5-min Rain = 0
KNH1 112249Z 07007KT 30/11 A3014 RMK A01 T02990109  RH  031%=      5-min Rain = 0
KNH1 112250Z 06006KT 30/11 A3014 RMK A01 T03000109  RH  031%=      5-min Rain = 0
KNH1 112251Z 05007KT 30/11 A3014 RMK A01 T02990108  RH  031%=      5-min Rain = 0
KNH1 112252Z 04005KT 30/11 A3014 RMK A01 T02990108  RH  031%=      5-min Rain = 0
KNH1 112253Z 04006KT 30/11 A3013 RMK A01 T02980107  RH  031%=      5-min Rain = 0
KNH1 112254Z 03004KT 30/11 A3013 RMK A01 T02970107  RH  031%=      5-min Rain = 0
KNH1 112255Z 05004KT 30/11 A3013 RMK A01 T02970107  RH  031%=      5-min Rain = 0
KNH1 112256Z 07005KT 30/11 A3013 RMK A01 T02970108  RH  031%=      5-min Rain = 0
KNH1 112257Z 05006KT 30/11 A3013 RMK A01 T02980111  RH  031%=      5-min Rain = 0
KNH1 112258Z 05005KT 30/11 A3013 RMK A01 T02990109  RH  031%=      5-min Rain = 0
KNH1 112259Z 02004KT 30/11 A3013 RMK A01 T02980110  RH  031%=      5-min Rain = 0
KNH1 112300Z 03002KT 30/11 A3013 RMK A01 T02980109  RH  031%=      5-min Rain = 0
KNH1 112301Z 06003KT 30/11 A3013 RMK A01 T02980110  RH  031%=      5-min Rain = 0
KNH1 112302Z 09006KT 30/11 A3013 RMK A01 T02990111  RH  031%=      5-min Rain = 0
KNH1 112303Z 09006KT 30/11 A3013 RMK A01 T03000109  RH  031%=      5-min Rain = 0
KNH1 112304Z 09003KT 30/11 A3013 RMK A01 T02980107  RH  031%=      5-min Rain = 0
KNH1 112305Z 10003KT 30/11 A3013 RMK A01 T02970110  RH  031%=      5-min Rain = 0
KNH1 112306Z 10004KT 30/11 A3013 RMK A01 T02970111  RH  032%=      5-min Rain = 0
KNH1 112307Z 11004KT 30/11 A3013 RMK A01 T02980110  RH  031%=      5-min Rain = 0
KNH1 112308Z 09005KT 30/11 A3013 RMK A01 T02980110  RH  031%=      5-min Rain = 0
KNH1 112309Z 10003KT 30/11 A3013 RMK A01 T02980108  RH  031%=      5-min Rain = 0
KNH1 112310Z 09002KT 30/11 A3013 RMK A01 T02970109  RH  031%=      5-min Rain = 0
KNH1 112311Z 09002KT 30/11 A3013 RMK A01 T02970109  RH  031%=      5-min Rain = 0
KNH1 112312Z 11004KT 30/11 A3013 RMK A01 T02980112  RH  032%=      5-min Rain = 0
KNH1 112313Z 11004KT 30/12 A3013 RMK A01 T02990115  RH  032%=      5-min Rain = 0
KNH1 112314Z 10002KT 30/11 A3013 RMK A01 T02990114  RH  032%=      5-min Rain = 0
KNH1 112315Z 12003KT 30/11 A3013 RMK A01 T03000112  RH  031%=      5-min Rain = 0
KNH1 112316Z 13003KT 30/11 A3013 RMK A01 T03000114  RH  032%=      5-min Rain = 0
KNH1 112317Z 13004KT 30/11 A3013 RMK A01 T03010112  RH  031%=      5-min Rain = 0
KNH1 112318Z 16003KT 30/11 A3013 RMK A01 T02990111  RH  031%=      5-min Rain = 0
KNH1 112319Z 07001KT 30/11 A3013 RMK A01 T02980111  RH  031%=      5-min Rain = 0
KNH1 112320Z 05002KT 30/11 A3013 RMK A01 T02970109  RH  031%=      5-min Rain = 0
KNH1 112321Z 05004KT 30/11 A3013 RMK A01 T02960108  RH  031%=      5-min Rain = 0
KNH1 112322Z 07003KT 30/11 A3013 RMK A01 T02950107  RH  031%=      5-min Rain = 0
KNH1 112323Z 09002KT 30/11 A3013 RMK A01 T02950107  RH  031%=      5-min Rain = 0
KNH1 112324Z 10005KT 29/11 A3013 RMK A01 T02940110  RH  032%=      5-min Rain = 0
KNH1 112325Z 11004KT 30/11 A3013 RMK A01 T02950111  RH  032%=      5-min Rain = 0
KNH1 112326Z 11002KT 29/11 A3013 RMK A01 T02940114  RH  033%=      5-min Rain = 0
KNH1 112327Z 13003KT 30/12 A3013 RMK A01 T02950115  RH  033%=      5-min Rain = 0
KNH1 112328Z 13004KT 30/12 A3013 RMK A01 T02970116  RH  033%=      5-min Rain = 0
KNH1 112329Z 11003KT 30/12 A3013 RMK A01 T02980116  RH  032%=      5-min Rain = 0
KNH1 112330Z 12004KT 30/11 A3013 RMK A01 T02990113  RH  032%=      5-min Rain = 0
KNH1 112331Z 11002KT 30/11 A3013 RMK A01 T02980113  RH  032%=      5-min Rain = 0
KNH1 112332Z 12003KT 30/11 A3013 RMK A01 T02960114  RH  032%=      5-min Rain = 0
KNH1 112333Z 11004KT 30/12 A3013 RMK A01 T02960117  RH  033%=      5-min Rain = 0
KNH1 112334Z 10005KT 30/12 A3013 RMK A01 T02960116  RH  033%=      5-min Rain = 0
KNH1 112335Z 09005KT 30/11 A3013 RMK A01 T02960114  RH  032%=      5-min Rain = 0
KNH1 112336Z 10004KT 30/11 A3013 RMK A01 T02960114  RH  033%=      5-min Rain = 0
KNH1 112337Z 11005KT 30/12 A3013 RMK A01 T02960115  RH  033%=      5-min Rain = 0
KNH1 112338Z 12004KT 30/11 A3013 RMK A01 T02950111  RH  032%=      5-min Rain = 0
KNH1 112339Z 11004KT 30/11 A3013 RMK A01 T02950110  RH  032%=      5-min Rain = 0
KNH1 112340Z 12003KT 30/11 A3013 RMK A01 T02950111  RH  032%=      5-min Rain = 0
KNH1 112341Z 10002KT 30/12 A3013 RMK A01 T02950115  RH  033%=      5-min Rain = 0
KNH1 112342Z 12003KT 30/12 A3013 RMK A01 T02950117  RH  033%=      5-min Rain = 0
KNH1 112343Z 09004KT 30/12 A3013 RMK A01 T02960117  RH  033%=      5-min Rain = 0
KNH1 112344Z 10003KT 30/12 A3013 RMK A01 T02960116  RH  033%=      5-min Rain = 0
KNH1 112345Z 10004KT 30/12 A3013 RMK A01 T02960119  RH  034%=      5-min Rain = 0
KNH1 112346Z 09004KT 30/12 A3013 RMK A01 T02960116  RH  033%=      5-min Rain = 0
KNH1 112347Z 09006KT 30/11 A3013 RMK A01 T02950113  RH  032%=      5-min Rain = 0
KNH1 112348Z 07007KT 29/11 A3013 RMK A01 T02940110  RH  032%=      5-min Rain = 0
KNH1 112349Z 07005KT 29/11 A3013 RMK A01 T02930107  RH  032%=      5-min Rain = 0
KNH1 112350Z 07004KT 29/11 A3013 RMK A01 T02920106  RH  032%=      5-min Rain = 0
KNH1 112351Z 06005KT 29/11 A3013 RMK A01 T02910107  RH  032%=      5-min Rain = 0
KNH1 112352Z 08004KT 29/11 A3013 RMK A01 T02910108  RH  032%=      5-min Rain = 0
KNH1 112353Z 09004KT 29/11 A3013 RMK A01 T02910108  RH  032%=      5-min Rain = 0
KNH1 112354Z 10004KT 29/11 A3013 RMK A01 T02910110  RH  033%=      5-min Rain = 0
KNH1 112355Z 10004KT 29/11 A3013 RMK A01 T02910110  RH  033%=      5-min Rain = 0
KNH1 112356Z 10003KT 29/11 A3013 RMK A01 T02910110  RH  033%=      5-min Rain = 0
KNH1 112357Z 12004KT 29/11 A3013 RMK A01 T02910112  RH  033%=      5-min Rain = 0
KNH1 112358Z 11004KT 29/12 A3013 RMK A01 T02910116  RH  034%=      5-min Rain = 0
KNH1 112359Z 10004KT 29/12 A3013 RMK A01 T02900116  RH  034%=      5-min Rain = 0
KNH1 120000Z 10004KT 29/12 A3013 RMK A01 T02890115  RH  034%=      5-min Rain = 0
KNH1 120001Z 10003KT 29/12 A3013 RMK A01 T02880116  RH  035%=      5-min Rain = 0
KNH1 120002Z 11003KT 29/12 A3013 RMK A01 T02880117  RH  035%=      5-min Rain = 0
KNH1 120003Z 10004KT 29/12 A3013 RMK A01 T02870117  RH  035%=      5-min Rain = 0
KNH1 120004Z 09004KT 29/12 A3013 RMK A01 T02860117  RH  035%=      5-min Rain = 0
KNH1 120005Z 10002KT 29/12 A3013 RMK A01 T02860115  RH  035%=      5-min Rain = 0
KNH1 120006Z 10003KT 29/12 A3013 RMK A01 T02860116  RH  035%=      5-min Rain = 0
KNH1 120007Z 10003KT 29/12 A3013 RMK A01 T02860117  RH  035%=      5-min Rain = 0
KNH1 120008Z 11003KT 29/12 A3013 RMK A01 T02850117  RH  035%=      5-min Rain = 0
KNH1 120009Z 11002KT 29/12 A3013 RMK A01 T02850118  RH  036%=      5-min Rain = 0
KNH1 120010Z 11003KT 28/12 A3013 RMK A01 T02840118  RH  036%=      5-min Rain = 0
KNH1 120011Z 10004KT 28/12 A3013 RMK A01 T02840117  RH  035%=      5-min Rain = 0
KNH1 120012Z 11003KT 28/12 A3013 RMK A01 T02840116  RH  035%=      5-min Rain = 0
KNH1 120013Z 11002KT 28/12 A3013 RMK A01 T02840118  RH  036%=      5-min Rain = 0
KNH1 120014Z 10003KT 28/12 A3013 RMK A01 T02830119  RH  036%=      5-min Rain = 0
KNH1 120015Z 10003KT 28/12 A3013 RMK A01 T02820119  RH  036%=      5-min Rain = 0
KNH1 120016Z 10004KT 28/12 A3013 RMK A01 T02820120  RH  037%=      5-min Rain = 0
KNH1 120017Z 11003KT 28/12 A3013 RMK A01 T02820119  RH  037%=      5-min Rain = 0
KNH1 120018Z 10003KT 28/12 A3013 RMK A01 T02810120  RH  037%=      5-min Rain = 0
KNH1 120019Z 10002KT 28/12 A3012 RMK A01 T02800121  RH  037%=      5-min Rain = 0
KNH1 120020Z 11003KT 28/12 A3012 RMK A01 T02800121  RH  037%=      5-min Rain = 0
KNH1 120021Z 10003KT 28/12 A3012 RMK A01 T02800121  RH  037%=      5-min Rain = 0
KNH1 120022Z 10002KT 28/12 A3012 RMK A01 T02800121  RH  037%=      5-min Rain = 0
KNH1 120023Z 11002KT 28/12 A3012 RMK A01 T02790122  RH  038%=      5-min Rain = 0
KNH1 120024Z 11002KT 28/12 A3012 RMK A01 T02790121  RH  037%=      5-min Rain = 0
KNH1 120025Z 11003KT 28/12 A3012 RMK A01 T02790122  RH  038%=      5-min Rain = 0
KNH1 120026Z 11002KT 28/12 A3012 RMK A01 T02780121  RH  038%=      5-min Rain = 0
KNH1 120027Z 11002KT 28/12 A3012 RMK A01 T02780122  RH  038%=      5-min Rain = 0
KNH1 120028Z 11003KT 28/12 A3012 RMK A01 T02780124  RH  038%=      5-min Rain = 0
KNH1 120029Z 11003KT 28/12 A3012 RMK A01 T02780123  RH  038%=      5-min Rain = 0
KNH1 120030Z 11002KT 28/13 A3012 RMK A01 T02780125  RH  039%=      5-min Rain = 0
KNH1 120031Z 10002KT 28/13 A3012 RMK A01 T02770126  RH  039%=      5-min Rain = 0
KNH1 120032Z 11002KT 28/13 A3012 RMK A01 T02760127  RH  040%=      5-min Rain = 0
KNH1 120033Z 10002KT 28/13 A3012 RMK A01 T02750127  RH  040%=      5-min Rain = 0
KNH1 120034Z 11002KT 28/13 A3012 RMK A01 T02750130  RH  041%=      5-min Rain = 0
KNH1 120035Z 11001KT 27/13 A3012 RMK A01 T02730130  RH  041%=      5-min Rain = 0
KNH1 120036Z 11002KT 27/13 A3012 RMK A01 T02720131  RH  042%=      5-min Rain = 0
KNH1 120037Z 11002KT 27/13 A3012 RMK A01 T02720132  RH  042%=      5-min Rain = 0
KNH1 120038Z 11002KT 27/13 A3012 RMK A01 T02710132  RH  042%=      5-min Rain = 0
KNH1 120039Z 10002KT 27/13 A3012 RMK A01 T02700132  RH  043%=      5-min Rain = 0
KNH1 120040Z 11002KT 27/13 A3012 RMK A01 T02690133  RH  043%=      5-min Rain = 0
KNH1 120041Z 11002KT 27/13 A3012 RMK A01 T02690132  RH  043%=      5-min Rain = 0
KNH1 120042Z 13002KT 27/13 A3012 RMK A01 T02680134  RH  043%=      5-min Rain = 0
KNH1 120043Z 14002KT 27/13 A3012 RMK A01 T02670134  RH  044%=      5-min Rain = 0
KNH1 120044Z 13001KT 27/13 A3012 RMK A01 T02660134  RH  044%=      5-min Rain = 0
KNH1 120045Z 14002KT 27/13 A3012 RMK A01 T02650134  RH  044%=      5-min Rain = 0
KNH1 120046Z 13002KT 26/13 A3012 RMK A01 T02640132  RH  044%=      5-min Rain = 0
KNH1 120047Z 12003KT 26/13 A3012 RMK A01 T02640131  RH  044%=      5-min Rain = 0
KNH1 120048Z 11002KT 26/13 A3012 RMK A01 T02630128  RH  043%=      5-min Rain = 0
KNH1 120049Z 12002KT 26/13 A3012 RMK A01 T02630127  RH  043%=      5-min Rain = 0
KNH1 120050Z 12002KT 26/13 A3012 RMK A01 T02630127  RH  043%=      5-min Rain = 0
KNH1 120051Z 12002KT 26/13 A3012 RMK A01 T02620126  RH  043%=      5-min Rain = 0
KNH1 120052Z 13002KT 26/13 A3012 RMK A01 T02620125  RH  042%=      5-min Rain = 0
KNH1 120053Z 14002KT 26/13 A3012 RMK A01 T02620126  RH  043%=      5-min Rain = 0
KNH1 120054Z 13001KT 26/13 A3012 RMK A01 T02620126  RH  043%=      5-min Rain = 0
KNH1 120055Z 15002KT 26/13 A3012 RMK A01 T02610126  RH  043%=      5-min Rain = 0
KNH1 120056Z 14002KT 26/13 A3012 RMK A01 T02600127  RH  043%=      5-min Rain = 0
KNH1 120057Z 13002KT 26/13 A3012 RMK A01 T02590127  RH  044%=      5-min Rain = 0
KNH1 120058Z 14002KT 26/13 A3012 RMK A01 T02590127  RH  044%=      5-min Rain = 0
KNH1 120059Z 13002KT 26/13 A3012 RMK A01 T02580126  RH  044%=      5-min Rain = 0
KNH1 120100Z 13002KT 26/12 A3012 RMK A01 T02570124  RH  044%=      5-min Rain = 0
KNH1 120101Z 13002KT 26/13 A3012 RMK A01 T02570125  RH  044%=      5-min Rain = 0
KNH1 120102Z 13002KT 26/12 A3012 RMK A01 T02560124  RH  044%=      5-min Rain = 0
KNH1 120103Z 13002KT 26/12 A3012 RMK A01 T02560123  RH  044%=      5-min Rain = 0
KNH1 120104Z 13002KT 26/12 A3012 RMK A01 T02550122  RH  044%=      5-min Rain = 0
KNH1 120105Z 13002KT 26/12 A3012 RMK A01 T02550122  RH  044%=      5-min Rain = 0
KNH1 120106Z 12002KT 26/12 A3012 RMK A01 T02550121  RH  043%=      5-min Rain = 0
KNH1 120107Z 12002KT 26/12 A3012 RMK A01 T02550121  RH  043%=      5-min Rain = 0
KNH1 120108Z 12002KT 26/12 A3012 RMK A01 T02550120  RH  043%=      5-min Rain = 0
KNH1 120109Z 12002KT 26/12 A3012 RMK A01 T02550120  RH  043%=      5-min Rain = 0
KNH1 120110Z 12002KT 25/12 A3012 RMK A01 T02540120  RH  043%=      5-min Rain = 0
KNH1 120111Z 11002KT 26/12 A3012 RMK A01 T02550120  RH  043%=      5-min Rain = 0
KNH1 120112Z 11002KT 26/12 A3012 RMK A01 T02550121  RH  043%=      5-min Rain = 0
KNH1 120113Z 11002KT 26/12 A3012 RMK A01 T02550122  RH  043%=      5-min Rain = 0
KNH1 120114Z 11002KT 26/12 A3012 RMK A01 T02550122  RH  044%=      5-min Rain = 0
KNH1 120115Z 11002KT 25/12 A3012 RMK A01 T02540123  RH  044%=      5-min Rain = 0
KNH1 120116Z 11002KT 25/12 A3012 RMK A01 T02530124  RH  044%=      5-min Rain = 0
KNH1 120117Z 11002KT 25/12 A3012 RMK A01 T02520124  RH  045%=      5-min Rain = 0
KNH1 120118Z 11002KT 25/12 A3012 RMK A01 T02510123  RH  045%=      5-min Rain = 0
KNH1 120119Z 11002KT 25/12 A3012 RMK A01 T02500122  RH  045%=      5-min Rain = 0
KNH1 120120Z 11002KT 25/12 A3012 RMK A01 T02490122  RH  045%=      5-min Rain = 0
KNH1 120121Z 11002KT 25/12 A3012 RMK A01 T02480122  RH  045%=      5-min Rain = 0
KNH1 120122Z 11002KT 25/12 A3012 RMK A01 T02470122  RH  046%=      5-min Rain = 0
KNH1 120123Z 11002KT 25/12 A3012 RMK A01 T02460122  RH  046%=      5-min Rain = 0
KNH1 120124Z 11002KT 25/12 A3012 RMK A01 T02460123  RH  046%=      5-min Rain = 0
KNH1 120125Z 11002KT 25/12 A3012 RMK A01 T02450123  RH  046%=      5-min Rain = 0
KNH1 120126Z 11002KT 25/12 A3012 RMK A01 T02450123  RH  046%=      5-min Rain = 0
KNH1 120127Z 11002KT 25/12 A3012 RMK A01 T02450123  RH  047%=      5-min Rain = 0
KNH1 120128Z 11002KT 25/12 A3012 RMK A01 T02450123  RH  046%=      5-min Rain = 0
KNH1 120129Z 11002KT 25/12 A3012 RMK A01 T02460123  RH  046%=      5-min Rain = 0
KNH1 120130Z 12002KT 25/12 A3012 RMK A01 T02450122  RH  046%=      5-min Rain = 0
KNH1 120131Z 12002KT 25/12 A3012 RMK A01 T02450122  RH  046%=      5-min Rain = 0
KNH1 120132Z 12002KT 25/12 A3012 RMK A01 T02460121  RH  046%=      5-min Rain = 0
KNH1 120133Z 12003KT 25/12 A3012 RMK A01 T02460121  RH  046%=      5-min Rain = 0
KNH1 120134Z 12003KT 25/12 A3012 RMK A01 T02460122  RH  046%=      5-min Rain = 0
KNH1 120135Z 11002KT 25/12 A3012 RMK A01 T02460122  RH  046%=      5-min Rain = 0
KNH1 120136Z 11002KT 25/12 A3012 RMK A01 T02460122  RH  046%=      5-min Rain = 0
KNH1 120137Z 12002KT 25/12 A3012 RMK A01 T02450122  RH  046%=      5-min Rain = 0
KNH1 120138Z 12003KT 25/12 A3012 RMK A01 T02450121  RH  046%=      5-min Rain = 0
KNH1 120139Z 11003KT 25/12 A3012 RMK A01 T02450120  RH  046%=      5-min Rain = 0
KNH1 120140Z 11003KT 25/12 A3012 RMK A01 T02450119  RH  045%=      5-min Rain = 0
KNH1 120141Z 11002KT 25/12 A3012 RMK A01 T02450119  RH  045%=      5-min Rain = 0
KNH1 120142Z 11002KT 25/12 A3012 RMK A01 T02450119  RH  045%=      5-min Rain = 0
KNH1 120143Z 11002KT 25/12 A3012 RMK A01 T02450118  RH  045%=      5-min Rain = 0
KNH1 120144Z 11002KT 25/12 A3012 RMK A01 T02450118  RH  045%=      5-min Rain = 0
KNH1 120145Z 11002KT 25/12 A3012 RMK A01 T02450117  RH  045%=      5-min Rain = 0
KNH1 120146Z 11002KT 25/12 A3013 RMK A01 T02450118  RH  045%=      5-min Rain = 0
KNH1 120147Z 11002KT 25/12 A3013 RMK A01 T02450119  RH  045%=      5-min Rain = 0
KNH1 120148Z 11002KT 25/12 A3013 RMK A01 T02450120  RH  046%=      5-min Rain = 0
KNH1 120149Z 12002KT 24/12 A3013 RMK A01 T02440119  RH  046%=      5-min Rain = 0
KNH1 120150Z 12002KT 24/12 A3013 RMK A01 T02430118  RH  046%=      5-min Rain = 0
KNH1 120151Z 12002KT 24/12 A3013 RMK A01 T02430118  RH  046%=      5-min Rain = 0
KNH1 120152Z 12002KT 24/12 A3013 RMK A01 T02420119  RH  046%=      5-min Rain = 0
KNH1 120153Z 13002KT 24/12 A3013 RMK A01 T02410120  RH  047%=      5-min Rain = 0
KNH1 120154Z 15002KT 24/12 A3013 RMK A01 T02390118  RH  047%=      5-min Rain = 0
KNH1 120155Z 15002KT 24/12 A3013 RMK A01 T02380116  RH  046%=      5-min Rain = 0
KNH1 120156Z 15002KT 24/12 A3013 RMK A01 T02370116  RH  047%=      5-min Rain = 0
KNH1 120157Z 15002KT 24/12 A3013 RMK A01 T02360115  RH  046%=      5-min Rain = 0
KNH1 120158Z 15002KT 24/11 A3013 RMK A01 T02360114  RH  046%=      5-min Rain = 0
KNH1 120159Z 15002KT 24/12 A3013 RMK A01 T02350115  RH  047%=      5-min Rain = 0
KNH1 120200Z 15002KT 23/12 A3013 RMK A01 T02340116  RH  048%=      5-min Rain = 0
KNH1 120201Z 17002KT 23/12 A3013 RMK A01 T02320117  RH  048%=      5-min Rain = 0
KNH1 120202Z 17002KT 23/12 A3013 RMK A01 T02300116  RH  049%=      5-min Rain = 0
KNH1 120203Z 17002KT 23/12 A3013 RMK A01 T02290117  RH  049%=      5-min Rain = 0
KNH1 120204Z 17002KT 23/12 A3013 RMK A01 T02280117  RH  050%=      5-min Rain = 0
KNH1 120205Z 17002KT 23/12 A3013 RMK A01 T02270117  RH  050%=      5-min Rain = 0
KNH1 120206Z 17002KT 23/12 A3014 RMK A01 T02270117  RH  050%=      5-min Rain = 0
KNH1 120207Z 17002KT 23/12 A3014 RMK A01 T02260116  RH  050%=      5-min Rain = 0
KNH1 120208Z 17002KT 23/12 A3014 RMK A01 T02250115  RH  050%=      5-min Rain = 0
KNH1 120209Z 17002KT 23/12 A3014 RMK A01 T02250116  RH  050%=      5-min Rain = 0
KNH1 120210Z 17002KT 23/12 A3014 RMK A01 T02250117  RH  050%=      5-min Rain = 0
KNH1 120211Z 17002KT 22/12 A3014 RMK A01 T02240117  RH  051%=      5-min Rain = 0
KNH1 120212Z 17002KT 22/12 A3014 RMK A01 T02240117  RH  051%=      5-min Rain = 0
KNH1 120213Z 17002KT 22/12 A3014 RMK A01 T02230118  RH  051%=      5-min Rain = 0
KNH1 120214Z 17002KT 22/12 A3014 RMK A01 T02230117  RH  051%=      5-min Rain = 0
KNH1 120215Z 17002KT 22/12 A3014 RMK A01 T02220116  RH  051%=      5-min Rain = 0
KNH1 120216Z 17002KT 22/12 A3014 RMK A01 T02220117  RH  051%=      5-min Rain = 0
KNH1 120217Z 18002KT 22/12 A3014 RMK A01 T02210117  RH  052%=      5-min Rain = 0
KNH1 120218Z 18002KT 22/12 A3014 RMK A01 T02210118  RH  052%=      5-min Rain = 0
KNH1 120219Z 18002KT 22/12 A3014 RMK A01 T02200118  RH  052%=      5-min Rain = 0
KNH1 120220Z 18002KT 22/12 A3014 RMK A01 T02190118  RH  053%=      5-min Rain = 0
KNH1 120221Z 18002KT 22/12 A3014 RMK A01 T02190118  RH  053%=      5-min Rain = 0
KNH1 120222Z 18002KT 22/12 A3014 RMK A01 T02180118  RH  053%=      5-min Rain = 0
KNH1 120223Z 19002KT 22/12 A3014 RMK A01 T02180118  RH  053%=      5-min Rain = 0
KNH1 120224Z 19002KT 22/12 A3014 RMK A01 T02180118  RH  053%=      5-min Rain = 0
KNH1 120225Z 19002KT 22/12 A3014 RMK A01 T02170118  RH  053%=      5-min Rain = 0
KNH1 120226Z 19002KT 22/12 A3014 RMK A01 T02170117  RH  053%=      5-min Rain = 0
KNH1 120227Z 19002KT 22/12 A3014 RMK A01 T02170118  RH  053%=      5-min Rain = 0
KNH1 120228Z 19002KT 22/12 A3014 RMK A01 T02170118  RH  053%=      5-min Rain = 0
KNH1 120229Z 19002KT 22/12 A3014 RMK A01 T02170119  RH  053%=      5-min Rain = 0
KNH1 120230Z 19001KT 22/12 A3014 RMK A01 T02170118  RH  053%=      5-min Rain = 0
KNH1 120231Z 19002KT 22/12 A3014 RMK A01 T02180119  RH  053%=      5-min Rain = 0
KNH1 120232Z 19002KT 22/12 A3014 RMK A01 T02170118  RH  053%=      5-min Rain = 0
KNH1 120233Z 19002KT 22/12 A3014 RMK A01 T02170118  RH  053%=      5-min Rain = 0
KNH1 120234Z 19001KT 22/12 A3014 RMK A01 T02180119  RH  053%=      5-min Rain = 0
KNH1 120235Z 19001KT 22/12 A3014 RMK A01 T02170120  RH  054%=      5-min Rain = 0
KNH1 120236Z 19001KT 22/12 A3014 RMK A01 T02170120  RH  054%=      5-min Rain = 0
KNH1 120237Z 19001KT 22/12 A3014 RMK A01 T02170120  RH  054%=      5-min Rain = 0
KNH1 120238Z 19001KT 22/12 A3014 RMK A01 T02170119  RH  054%=      5-min Rain = 0
KNH1 120239Z 19001KT 22/12 A3014 RMK A01 T02170119  RH  054%=      5-min Rain = 0
KNH1 120240Z 19002KT 22/12 A3014 RMK A01 T02160118  RH  054%=      5-min Rain = 0
KNH1 120241Z 19002KT 22/12 A3014 RMK A01 T02160117  RH  053%=      5-min Rain = 0
KNH1 120242Z 19002KT 22/12 A3014 RMK A01 T02160118  RH  054%=      5-min Rain = 0
KNH1 120243Z 19002KT 22/12 A3014 RMK A01 T02160118  RH  054%=      5-min Rain = 0
KNH1 120244Z 19002KT 22/12 A3014 RMK A01 T02150117  RH  054%=      5-min Rain = 0
KNH1 120245Z 19002KT 22/12 A3014 RMK A01 T02150118  RH  054%=      5-min Rain = 0
KNH1 120246Z 19002KT 22/12 A3014 RMK A01 T02150115  RH  053%=      5-min Rain = 0
KNH1 120247Z 19002KT 22/11 A3014 RMK A01 T02150113  RH  052%=      5-min Rain = 0
KNH1 120248Z 19002KT 22/11 A3014 RMK A01 T02160113  RH  052%=      5-min Rain = 0
KNH1 120249Z 19002KT 22/11 A3014 RMK A01 T02160113  RH  052%=      5-min Rain = 0
KNH1 120250Z 19002KT 22/11 A3014 RMK A01 T02150113  RH  052%=      5-min Rain = 0
KNH1 120251Z 19002KT 22/11 A3014 RMK A01 T02150113  RH  052%=      5-min Rain = 0
KNH1 120252Z 19002KT 21/11 A3014 RMK A01 T02140114  RH  053%=      5-min Rain = 0
KNH1 120253Z 19002KT 21/11 A3014 RMK A01 T02130113  RH  053%=      5-min Rain = 0
KNH1 120254Z 19001KT 21/11 A3014 RMK A01 T02130114  RH  053%=      5-min Rain = 0
KNH1 120255Z 19001KT 21/11 A3014 RMK A01 T02120114  RH  054%=      5-min Rain = 0
KNH1 120256Z 19001KT 21/11 A3014 RMK A01 T02110113  RH  054%=      5-min Rain = 0
KNH1 120257Z 19001KT 21/11 A3014 RMK A01 T02100113  RH  054%=      5-min Rain = 0
KNH1 120258Z 19001KT 21/11 A3014 RMK A01 T02100113  RH  054%=      5-min Rain = 0
KNH1 120259Z 19001KT 21/11 A3014 RMK A01 T02100113  RH  054%=      5-min Rain = 0
KNH1 120300Z 19001KT 21/11 A3014 RMK A01 T02100113  RH  054%=      5-min Rain = 0
KNH1 120301Z 19001KT 21/11 A3014 RMK A01 T02100112  RH  054%=      5-min Rain = 0
KNH1 120302Z 19001KT 21/11 A3014 RMK A01 T02100112  RH  054%=      5-min Rain = 0
KNH1 120303Z 19001KT 21/11 A3015 RMK A01 T02100113  RH  054%=      5-min Rain = 0
KNH1 120304Z 19001KT 21/11 A3015 RMK A01 T02090112  RH  054%=      5-min Rain = 0
KNH1 120305Z 19001KT 21/11 A3015 RMK A01 T02090110  RH  053%=      5-min Rain = 0
KNH1 120306Z 19001KT 21/11 A3014 RMK A01 T02080111  RH  054%=      5-min Rain = 0
KNH1 120307Z 19001KT 21/11 A3014 RMK A01 T02070111  RH  054%=      5-min Rain = 0
KNH1 120308Z 19001KT 21/11 A3014 RMK A01 T02070110  RH  054%=      5-min Rain = 0
KNH1 120309Z 19001KT 21/11 A3014 RMK A01 T02070110  RH  054%=      5-min Rain = 0
KNH1 120310Z 19001KT 21/11 A3014 RMK A01 T02080110  RH  053%=      5-min Rain = 0
KNH1 120311Z 19001KT 21/11 A3014 RMK A01 T02080108  RH  053%=      5-min Rain = 0
KNH1 120312Z 19002KT 21/11 A3015 RMK A01 T02080107  RH  052%=      5-min Rain = 0
KNH1 120313Z 19001KT 21/11 A3015 RMK A01 T02090108  RH  052%=      5-min Rain = 0
KNH1 120314Z 19001KT 21/11 A3014 RMK A01 T02100109  RH  052%=      5-min Rain = 0
KNH1 120315Z 19001KT 21/11 A3014 RMK A01 T02110109  RH  052%=      5-min Rain = 0
KNH1 120316Z 19001KT 21/11 A3014 RMK A01 T02120109  RH  052%=      5-min Rain = 0
KNH1 120317Z 19001KT 21/11 A3014 RMK A01 T02130110  RH  052%=      5-min Rain = 0
KNH1 120318Z 19001KT 21/11 A3014 RMK A01 T02140110  RH  051%=      5-min Rain = 0
KNH1 120319Z 19001KT 21/11 A3014 RMK A01 T02140111  RH  052%=      5-min Rain = 0
KNH1 120320Z 19001KT 21/11 A3014 RMK A01 T02140111  RH  052%=      5-min Rain = 0
KNH1 120321Z 19001KT 22/11 A3014 RMK A01 T02150111  RH  052%=      5-min Rain = 0
KNH1 120322Z 19001KT 22/11 A3014 RMK A01 T02150112  RH  052%=      5-min Rain = 0
KNH1 120323Z 19001KT 22/11 A3014 RMK A01 T02150113  RH  052%=      5-min Rain = 0
KNH1 120324Z 19001KT 22/11 A3014 RMK A01 T02150113  RH  052%=      5-min Rain = 0
KNH1 120325Z 19001KT 22/11 A3014 RMK A01 T02150112  RH  052%=      5-min Rain = 0
KNH1 120326Z 19001KT 22/11 A3014 RMK A01 T02150112  RH  052%=      5-min Rain = 0
KNH1 120327Z 19001KT 22/11 A3014 RMK A01 T02160112  RH  052%=      5-min Rain = 0
KNH1 120328Z 19001KT 22/11 A3014 RMK A01 T02160111  RH  051%=      5-min Rain = 0
KNH1 120329Z 19001KT 22/11 A3014 RMK A01 T02150111  RH  051%=      5-min Rain = 0
KNH1 120330Z 19001KT 22/11 A3014 RMK A01 T02150111  RH  052%=      5-min Rain = 0
KNH1 120331Z 19001KT 21/11 A3014 RMK A01 T02140111  RH  052%=      5-min Rain = 0
KNH1 120332Z 19001KT 21/11 A3014 RMK A01 T02130111  RH  052%=      5-min Rain = 0
KNH1 120333Z 19001KT 21/11 A3014 RMK A01 T02130111  RH  052%=      5-min Rain = 0
KNH1 120334Z 19001KT 21/11 A3014 RMK A01 T02120111  RH  052%=      5-min Rain = 0
KNH1 120335Z 19001KT 21/11 A3014 RMK A01 T02120111  RH  053%=      5-min Rain = 0
KNH1 120336Z 19001KT 21/11 A3014 RMK A01 T02110111  RH  053%=      5-min Rain = 0
KNH1 120337Z 19001KT 21/11 A3014 RMK A01 T02110111  RH  053%=      5-min Rain = 0
KNH1 120338Z 19001KT 21/11 A3014 RMK A01 T02110111  RH  053%=      5-min Rain = 0
KNH1 120339Z 19001KT 21/11 A3015 RMK A01 T02110112  RH  053%=      5-min Rain = 0
KNH1 120340Z 19001KT 21/11 A3015 RMK A01 T02110112  RH  053%=      5-min Rain = 0
KNH1 120341Z 19001KT 21/11 A3015 RMK A01 T02110113  RH  053%=      5-min Rain = 0
KNH1 120342Z 19001KT 21/11 A3015 RMK A01 T02110113  RH  053%=      5-min Rain = 0
KNH1 120343Z 19001KT 21/11 A3015 RMK A01 T02110112  RH  053%=      5-min Rain = 0
KNH1 120344Z 19001KT 21/11 A3015 RMK A01 T02100112  RH  053%=      5-min Rain = 0
KNH1 120345Z 19001KT 21/11 A3015 RMK A01 T02100112  RH  053%=      5-min Rain = 0
KNH1 120346Z 19001KT 21/11 A3015 RMK A01 T02100111  RH  053%=      5-min Rain = 0
KNH1 120347Z 19001KT 21/11 A3015 RMK A01 T02090111  RH  053%=      5-min Rain = 0
KNH1 120348Z 19000KT 21/11 A3015 RMK A01 T02090110  RH  053%=      5-min Rain = 0
KNH1 120349Z 19000KT 21/11 A3015 RMK A01 T02090110  RH  053%=      5-min Rain = 0
KNH1 120350Z 19000KT 21/11 A3015 RMK A01 T02080110  RH  053%=      5-min Rain = 0
KNH1 120351Z 19000KT 21/11 A3015 RMK A01 T02070110  RH  054%=      5-min Rain = 0
KNH1 120352Z 19000KT 21/11 A3015 RMK A01 T02070110  RH  054%=      5-min Rain = 0
KNH1 120353Z 00000KT 21/11 A3015 RMK A01 T02060110  RH  054%=      5-min Rain = 0
KNH1 120354Z 00000KT 21/11 A3015 RMK A01 T02060110  RH  054%=      5-min Rain = 0
KNH1 120355Z 00000KT 21/11 A3015 RMK A01 T02050111  RH  055%=      5-min Rain = 0
KNH1 120356Z 00000KT 21/11 A3015 RMK A01 T02050110  RH  055%=      5-min Rain = 0
KNH1 120357Z 00000KT 21/11 A3015 RMK A01 T02050111  RH  055%=      5-min Rain = 0
KNH1 120358Z 19000KT 20/11 A3015 RMK A01 T02040110  RH  055%=      5-min Rain = 0
KNH1 120359Z 19000KT 21/11 A3015 RMK A01 T02050111  RH  055%=      5-min Rain = 0
KNH1 120400Z 19000KT 21/11 A3015 RMK A01 T02060111  RH  054%=      5-min Rain = 0
KNH1 120401Z 19000KT 21/11 A3015 RMK A01 T02060111  RH  054%=      5-min Rain = 0
KNH1 120402Z 19000KT 21/11 A3015 RMK A01 T02060110  RH  054%=      5-min Rain = 0
KNH1 120403Z 19000KT 21/11 A3015 RMK A01 T02060110  RH  054%=      5-min Rain = 0
KNH1 120404Z 19000KT 21/11 A3015 RMK A01 T02060110  RH  054%=      5-min Rain = 0
KNH1 120405Z 19000KT 21/11 A3015 RMK A01 T02060110  RH  054%=      5-min Rain = 0
KNH1 120406Z 00000KT 21/11 A3015 RMK A01 T02060109  RH  054%=      5-min Rain = 0
KNH1 120407Z 00000KT 21/11 A3015 RMK A01 T02060110  RH  054%=      5-min Rain = 0
KNH1 120408Z 00000KT 21/11 A3015 RMK A01 T02050111  RH  055%=      5-min Rain = 0
KNH1 120409Z 00000KT 20/11 A3015 RMK A01 T02040111  RH  055%=      5-min Rain = 0
KNH1 120410Z 08003G9KT 21/11 A3015 RMK A01 T02050110  RH  054%=      5-min Rain = 0
KNH1 120411Z 08009KT 21/11 A3015 RMK A01 T02070108  RH  053%=      5-min Rain = 0
KNH1 120412Z 08006KT 21/11 A3015 RMK A01 T02110109  RH  052%=      5-min Rain = 0
KNH1 120413Z 09007KT 21/11 A3015 RMK A01 T02140109  RH  051%=      5-min Rain = 0
KNH1 120414Z 09007KT 22/11 A3015 RMK A01 T02170108  RH  050%=      5-min Rain = 0
KNH1 120415Z 08006KT 22/11 A3015 RMK A01 T02200108  RH  049%=      5-min Rain = 0
KNH1 120416Z 08005KT 22/11 A3015 RMK A01 T02220108  RH  049%=      5-min Rain = 0
KNH1 120417Z 08004KT 22/11 A3015 RMK A01 T02210108  RH  049%=      5-min Rain = 0
KNH1 120418Z 08005KT 22/11 A3015 RMK A01 T02200108  RH  049%=      5-min Rain = 0
KNH1 120419Z 09005KT 22/11 A3015 RMK A01 T02190107  RH  049%=      5-min Rain = 0
KNH1 120420Z 08004KT 22/11 A3015 RMK A01 T02190107  RH  049%=      5-min Rain = 0
KNH1 120421Z 08004KT 22/11 A3015 RMK A01 T02180108  RH  049%=      5-min Rain = 0
KNH1 120422Z 08004KT 22/11 A3015 RMK A01 T02170108  RH  050%=      5-min Rain = 0
KNH1 120423Z 08005KT 22/11 A3015 RMK A01 T02150107  RH  050%=      5-min Rain = 0
KNH1 120424Z 09005KT 21/11 A3015 RMK A01 T02140107  RH  050%=      5-min Rain = 0
KNH1 120425Z 09005KT 21/11 A3015 RMK A01 T02140107  RH  051%=      5-min Rain = 0
KNH1 120426Z 08004KT 21/11 A3015 RMK A01 T02130107  RH  051%=      5-min Rain = 0
KNH1 120427Z 07005KT 21/11 A3015 RMK A01 T02120108  RH  051%=      5-min Rain = 0
KNH1 120428Z 07005KT 21/11 A3015 RMK A01 T02100108  RH  052%=      5-min Rain = 0
KNH1 120429Z 07004KT 21/11 A3015 RMK A01 T02080107  RH  052%=      5-min Rain = 0
KNH1 120430Z 07004KT 21/11 A3015 RMK A01 T02080107  RH  052%=      5-min Rain = 0
KNH1 120431Z 08003KT 21/11 A3015 RMK A01 T02080107  RH  052%=      5-min Rain = 0
KNH1 120432Z 08004KT 21/11 A3015 RMK A01 T02090107  RH  052%=      5-min Rain = 0
KNH1 120433Z 08004KT 21/11 A3015 RMK A01 T02100107  RH  052%=      5-min Rain = 0
KNH1 120434Z 08004KT 21/11 A3015 RMK A01 T02110107  RH  052%=      5-min Rain = 0
KNH1 120435Z 08004KT 21/11 A3015 RMK A01 T02110107  RH  051%=      5-min Rain = 0
KNH1 120436Z 08003KT 21/11 A3015 RMK A01 T02110107  RH  052%=      5-min Rain = 0
KNH1 120437Z 07004KT 21/11 A3015 RMK A01 T02100107  RH  052%=      5-min Rain = 0
KNH1 120438Z 07003KT 21/11 A3015 RMK A01 T02090107  RH  052%=      5-min Rain = 0
KNH1 120439Z 07004KT 21/11 A3015 RMK A01 T02090107  RH  052%=      5-min Rain = 0
KNH1 120440Z 07003KT 21/11 A3015 RMK A01 T02080107  RH  052%=      5-min Rain = 0
KNH1 120441Z 08003KT 21/11 A3015 RMK A01 T02070107  RH  053%=      5-min Rain = 0
KNH1 120442Z 08004KT 21/11 A3015 RMK A01 T02060107  RH  053%=      5-min Rain = 0
KNH1 120443Z 08004KT 21/11 A3015 RMK A01 T02050108  RH  054%=      5-min Rain = 0
KNH1 120444Z 08004KT 21/11 A3015 RMK A01 T02050108  RH  054%=      5-min Rain = 0
KNH1 120445Z 08003KT 20/11 A3015 RMK A01 T02040108  RH  054%=      5-min Rain = 0
KNH1 120446Z 09004KT 20/11 A3015 RMK A01 T02040108  RH  054%=      5-min Rain = 0
KNH1 120447Z 09003KT 20/11 A3015 RMK A01 T02030108  RH  054%=      5-min Rain = 0
KNH1 120448Z 10003KT 20/11 A3015 RMK A01 T02030108  RH  054%=      5-min Rain = 0
KNH1 120449Z 11003KT 20/11 A3015 RMK A01 T02030109  RH  055%=      5-min Rain = 0
KNH1 120450Z 11003KT 20/11 A3015 RMK A01 T02020108  RH  055%=      5-min Rain = 0
KNH1 120451Z 10003KT 20/11 A3015 RMK A01 T02030108  RH  055%=      5-min Rain = 0
KNH1 120452Z 11002KT 20/11 A3015 RMK A01 T02030109  RH  054%=      5-min Rain = 0
KNH1 120453Z 10003KT 20/11 A3015 RMK A01 T02030108  RH  054%=      5-min Rain = 0
KNH1 120454Z 10003KT 20/11 A3015 RMK A01 T02030109  RH  055%=      5-min Rain = 0
KNH1 120455Z 10003KT 20/11 A3015 RMK A01 T02030109  RH  055%=      5-min Rain = 0
KNH1 120456Z 10003KT 20/11 A3015 RMK A01 T02020109  RH  055%=      5-min Rain = 0
KNH1 120457Z 11003KT 20/11 A3015 RMK A01 T02020109  RH  055%=      5-min Rain = 0
KNH1 120458Z 11003KT 20/11 A3015 RMK A01 T02010109  RH  055%=      5-min Rain = 0
KNH1 120459Z 11003KT 20/11 A3015 RMK A01 T02010109  RH  056%=      5-min Rain = 0

Page generated in 0.1542 seconds.